Observation data for Fort Chadbourne on 02/22/2019      Previous  Date  Next       Current Mesonet Observations  Soil Data  Daily Summary Page  Observations in Plain Language
KCH1 220600Z 11006KT 06/03 A2992 RMK A01 T00610032  RH  082%=      5-min Rain = 0
KCH1 220601Z 11005KT 06/03 A2992 RMK A01 T00610032  RH  081%=      5-min Rain = 0
KCH1 220602Z 11008KT 06/03 A2992 RMK A01 T00620032  RH  081%=      5-min Rain = 0
KCH1 220603Z 11006KT 06/03 A2992 RMK A01 T00620031  RH  081%=      5-min Rain = 0
KCH1 220604Z 11007KT 06/03 A2992 RMK A01 T00630031  RH  080%=      5-min Rain = 0
KCH1 220605Z 11006KT 06/03 A2992 RMK A01 T00630031  RH  080%=      5-min Rain = 0
KCH1 220606Z 11006KT 06/03 A2992 RMK A01 T00630032  RH  081%=      5-min Rain = 0
KCH1 220607Z 11006KT 06/03 A2992 RMK A01 T00630032  RH  080%=      5-min Rain = 0
KCH1 220608Z 11007KT 06/03 A2992 RMK A01 T00630032  RH  080%=      5-min Rain = 0
KCH1 220609Z 11008KT 06/03 A2992 RMK A01 T00640032  RH  080%=      5-min Rain = 0
KCH1 220610Z 11007KT 06/03 A2992 RMK A01 T00640032  RH  080%=      5-min Rain = 0
KCH1 220611Z 11007KT 06/03 A2992 RMK A01 T00640032  RH  080%=      5-min Rain = 0
KCH1 220612Z 11008KT 06/03 A2992 RMK A01 T00640032  RH  080%=      5-min Rain = 0
KCH1 220613Z 11007KT 06/03 A2992 RMK A01 T00640032  RH  080%=      5-min Rain = 0
KCH1 220614Z 12006KT 07/03 A2992 RMK A01 T00650032  RH  080%=      5-min Rain = 0
KCH1 220615Z 11007KT 07/03 A2992 RMK A01 T00650033  RH  080%=      5-min Rain = 0
KCH1 220616Z 11006KT 07/03 A2992 RMK A01 T00650033  RH  080%=      5-min Rain = 0
KCH1 220617Z 11006KT 07/03 A2992 RMK A01 T00650032  RH  080%=      5-min Rain = 0
KCH1 220618Z 10007KT 07/03 A2992 RMK A01 T00650033  RH  080%=      5-min Rain = 0
KCH1 220619Z 11007KT 07/03 A2992 RMK A01 T00650032  RH  080%=      5-min Rain = 0
KCH1 220620Z 11006KT 07/03 A2992 RMK A01 T00650033  RH  080%=      5-min Rain = 0
KCH1 220621Z 10006KT 07/03 A2992 RMK A01 T00650033  RH  080%=      5-min Rain = 0
KCH1 220622Z 10007KT 07/03 A2992 RMK A01 T00650033  RH  080%=      5-min Rain = 0
KCH1 220623Z 11006KT 07/03 A2992 RMK A01 T00650033  RH  080%=      5-min Rain = 0
KCH1 220624Z 11006KT 07/03 A2992 RMK A01 T00650033  RH  080%=      5-min Rain = 0
KCH1 220625Z 11005KT 07/03 A2992 RMK A01 T00650033  RH  080%=      5-min Rain = 0
KCH1 220626Z 11004KT 07/03 A2992 RMK A01 T00660034  RH  080%=      5-min Rain = 0
KCH1 220627Z 11006KT 07/03 A2992 RMK A01 T00660034  RH  080%=      5-min Rain = 0
KCH1 220628Z 11005KT 07/03 A2992 RMK A01 T00660034  RH  080%=      5-min Rain = 0
KCH1 220629Z 11005KT 07/03 A2992 RMK A01 T00660034  RH  080%=      5-min Rain = 0
KCH1 220630Z 11006KT 07/03 A2991 RMK A01 T00660034  RH  080%=      5-min Rain = 0
KCH1 220631Z 11006KT 07/03 A2991 RMK A01 T00660034  RH  080%=      5-min Rain = 0
KCH1 220632Z 11005KT 07/03 A2991 RMK A01 T00660034  RH  080%=      5-min Rain = 0
KCH1 220633Z 10006KT 07/04 A2991 RMK A01 T00660035  RH  080%=      5-min Rain = 0
KCH1 220634Z 11006KT 07/04 A2991 RMK A01 T00660035  RH  080%=      5-min Rain = 0
KCH1 220635Z 11005KT 07/04 A2991 RMK A01 T00660035  RH  080%=      5-min Rain = 0
KCH1 220636Z 11005KT 07/04 A2991 RMK A01 T00670035  RH  080%=      5-min Rain = 0
KCH1 220637Z 10004KT 07/04 A2991 RMK A01 T00670035  RH  080%=      5-min Rain = 0
KCH1 220638Z 11006KT 07/04 A2991 RMK A01 T00670035  RH  080%=      5-min Rain = 0
KCH1 220639Z 11005KT 07/04 A2991 RMK A01 T00670035  RH  080%=      5-min Rain = 0
KCH1 220640Z 10006KT 07/04 A2991 RMK A01 T00670035  RH  080%=      5-min Rain = 0
KCH1 220641Z 10004KT 07/04 A2991 RMK A01 T00670035  RH  080%=      5-min Rain = 0
KCH1 220642Z 10004KT 07/04 A2991 RMK A01 T00670035  RH  080%=      5-min Rain = 0
KCH1 220643Z 09005KT 07/04 A2991 RMK A01 T00670036  RH  081%=      5-min Rain = 0
KCH1 220644Z 09004KT 07/04 A2991 RMK A01 T00660035  RH  081%=      5-min Rain = 0
KCH1 220645Z 10004KT 07/04 A2991 RMK A01 T00670036  RH  081%=      5-min Rain = 0
KCH1 220646Z 10005KT 07/04 A2991 RMK A01 T00660036  RH  081%=      5-min Rain = 0
KCH1 220647Z 10005KT 07/04 A2991 RMK A01 T00670036  RH  081%=      5-min Rain = 0
KCH1 220648Z 10005KT 07/04 A2991 RMK A01 T00670036  RH  081%=      5-min Rain = 0
KCH1 220649Z 10005KT 07/04 A299 RMK A01 T00670036  RH  081%=      5-min Rain = 0
KCH1 220650Z 10005KT 07/04 A299 RMK A01 T00670036  RH  081%=      5-min Rain = 0
KCH1 220651Z 10005KT 07/04 A299 RMK A01 T00670036  RH  081%=      5-min Rain = 0
KCH1 220652Z 10004KT 07/04 A299 RMK A01 T00670036  RH  081%=      5-min Rain = 0
KCH1 220653Z 09004KT 07/04 A299 RMK A01 T00670036  RH  081%=      5-min Rain = 0
KCH1 220654Z 10005KT 07/04 A299 RMK A01 T00670037  RH  081%=      5-min Rain = 0
KCH1 220655Z 09005KT 07/04 A299 RMK A01 T00670037  RH  081%=      5-min Rain = 0
KCH1 220656Z 09005KT 07/04 A299 RMK A01 T00670037  RH  081%=      5-min Rain = 0
KCH1 220657Z 09005KT 07/04 A299 RMK A01 T00670037  RH  081%=      5-min Rain = 0
KCH1 220658Z 10005KT 07/04 A299 RMK A01 T00670037  RH  081%=      5-min Rain = 0
KCH1 220659Z 10004KT 07/04 A299 RMK A01 T00670037  RH  081%=      5-min Rain = 0
KCH1 220700Z 10004KT 07/04 A299 RMK A01 T00670038  RH  081%=      5-min Rain = 0
KCH1 220701Z 10006KT 07/04 A2989 RMK A01 T00680038  RH  082%=      5-min Rain = 0
KCH1 220702Z 10006KT 07/04 A2989 RMK A01 T00670038  RH  082%=      5-min Rain = 0
KCH1 220703Z 10005KT 07/04 A2989 RMK A01 T00680038  RH  081%=      5-min Rain = 0
KCH1 220704Z 10005KT 07/04 A2989 RMK A01 T00680039  RH  081%=      5-min Rain = 0
KCH1 220705Z 10005KT 07/04 A2989 RMK A01 T00680038  RH  081%=      5-min Rain = 0
KCH1 220706Z 10006KT 07/04 A2989 RMK A01 T00680038  RH  081%=      5-min Rain = 0
KCH1 220707Z 10005KT 07/04 A299 RMK A01 T00680039  RH  081%=      5-min Rain = 0
KCH1 220708Z 11005KT 07/04 A299 RMK A01 T00680039  RH  081%=      5-min Rain = 0
KCH1 220709Z 12005KT 07/04 A299 RMK A01 T00680039  RH  082%=      5-min Rain = 0
KCH1 220710Z 11006KT 07/04 A299 RMK A01 T00690039  RH  082%=      5-min Rain = 0
KCH1 220711Z 11007KT 07/04 A299 RMK A01 T00690040  RH  081%=      5-min Rain = 0
KCH1 220712Z 12005KT 07/04 A299 RMK A01 T00690040  RH  081%=      5-min Rain = 0
KCH1 220713Z 12008KT 07/04 A299 RMK A01 T00700040  RH  081%=      5-min Rain = 0
KCH1 220714Z 12007KT 07/04 A299 RMK A01 T00700040  RH  081%=      5-min Rain = 0
KCH1 220715Z 11007KT 07/04 A299 RMK A01 T00700040  RH  081%=      5-min Rain = 0
KCH1 220716Z 11007KT 07/04 A299 RMK A01 T00700041  RH  081%=      5-min Rain = 0
KCH1 220717Z 11005KT 07/04 A299 RMK A01 T00700040  RH  081%=      5-min Rain = 0
KCH1 220718Z 10006KT 07/04 A299 RMK A01 T00710041  RH  081%=      5-min Rain = 0
KCH1 220719Z 11006KT 07/04 A299 RMK A01 T00710041  RH  081%=      5-min Rain = 0
KCH1 220720Z 12006KT 07/04 A299 RMK A01 T00710041  RH  081%=      5-min Rain = 0
KCH1 220721Z 12008KT 07/04 A299 RMK A01 T00710042  RH  082%=      5-min Rain = 0
KCH1 220722Z 12007KT 07/04 A299 RMK A01 T00710042  RH  082%=      5-min Rain = 0
KCH1 220723Z 12008KT 07/04 A299 RMK A01 T00710042  RH  082%=      5-min Rain = 0
KCH1 220724Z 12008KT 07/04 A299 RMK A01 T00720043  RH  082%=      5-min Rain = 0
KCH1 220725Z 11007KT 07/04 A299 RMK A01 T00720043  RH  082%=      5-min Rain = 0
KCH1 220726Z 10006KT 07/04 A299 RMK A01 T00720043  RH  082%=      5-min Rain = 0
KCH1 220727Z 11005KT 07/04 A299 RMK A01 T00720043  RH  082%=      5-min Rain = 0
KCH1 220728Z 10006KT 07/04 A2989 RMK A01 T00720043  RH  082%=      5-min Rain = 0
KCH1 220729Z 11006KT 07/04 A2989 RMK A01 T00720043  RH  082%=      5-min Rain = 0
KCH1 220730Z 11007KT 07/04 A299 RMK A01 T00720043  RH  082%=      5-min Rain = 0
KCH1 220731Z 11007KT 07/04 A299 RMK A01 T00720044  RH  082%=      5-min Rain = 0
KCH1 220732Z 11006KT 07/04 A299 RMK A01 T00720044  RH  082%=      5-min Rain = 0
KCH1 220733Z 11007KT 07/04 A2989 RMK A01 T00730044  RH  082%=      5-min Rain = 0
KCH1 220734Z 10006KT 07/04 A2989 RMK A01 T00720044  RH  082%=      5-min Rain = 0
KCH1 220735Z 11006KT 07/04 A2989 RMK A01 T00730044  RH  082%=      5-min Rain = 0
KCH1 220736Z 11005KT 07/04 A2989 RMK A01 T00730044  RH  082%=      5-min Rain = 0
KCH1 220737Z 10006KT 07/04 A2989 RMK A01 T00720044  RH  082%=      5-min Rain = 0
KCH1 220738Z 11005KT 07/04 A2989 RMK A01 T00720044  RH  082%=      5-min Rain = 0
KCH1 220739Z 11007KT 07/04 A2989 RMK A01 T00730044  RH  082%=      5-min Rain = 0
KCH1 220740Z 11005KT 07/04 A2989 RMK A01 T00730044  RH  082%=      5-min Rain = 0
KCH1 220741Z 11006KT 07/04 A2989 RMK A01 T00730044  RH  082%=      5-min Rain = 0
KCH1 220742Z 12007KT 07/05 A299 RMK A01 T00730045  RH  082%=      5-min Rain = 0
KCH1 220743Z 11008KT 07/04 A2989 RMK A01 T00720044  RH  082%=      5-min Rain = 0
KCH1 220744Z 12006KT 07/05 A299 RMK A01 T00730045  RH  082%=      5-min Rain = 0
KCH1 220745Z 11007KT 07/05 A2989 RMK A01 T00730045  RH  082%=      5-min Rain = 0
KCH1 220746Z 11009KT 07/05 A2989 RMK A01 T00730045  RH  082%=      5-min Rain = 0
KCH1 220747Z 11008KT 07/05 A2989 RMK A01 T00730045  RH  083%=      5-min Rain = 0
KCH1 220748Z 11006KT 07/05 A2989 RMK A01 T00730046  RH  082%=      5-min Rain = 0
KCH1 220749Z 11008KT 07/05 A2989 RMK A01 T00730045  RH  082%=      5-min Rain = 0
KCH1 220750Z 12008KT 07/05 A2989 RMK A01 T00740046  RH  083%=      5-min Rain = 0
KCH1 220751Z 11007KT 07/05 A2989 RMK A01 T00740046  RH  083%=      5-min Rain = 0
KCH1 220752Z 11007KT 07/05 A2989 RMK A01 T00740046  RH  083%=      5-min Rain = 0
KCH1 220753Z 11007KT 07/05 A2989 RMK A01 T00740046  RH  083%=      5-min Rain = 0
KCH1 220754Z 11006KT 07/05 A2989 RMK A01 T00740046  RH  082%=      5-min Rain = 0
KCH1 220755Z 10005KT 07/05 A2989 RMK A01 T00740046  RH  083%=      5-min Rain = 0
KCH1 220756Z 10005KT 07/05 A2989 RMK A01 T00740046  RH  083%=      5-min Rain = 0
KCH1 220757Z 10007KT 07/05 A2989 RMK A01 T00740046  RH  083%=      5-min Rain = 0
KCH1 220758Z 10006KT 07/05 A2989 RMK A01 T00740046  RH  083%=      5-min Rain = 0
KCH1 220759Z 10005KT 07/05 A2989 RMK A01 T00740047  RH  083%=      5-min Rain = 0
KCH1 220800Z 11006KT 07/05 A2989 RMK A01 T00740047  RH  083%=      5-min Rain = 0
KCH1 220801Z 10006KT 07/05 A2989 RMK A01 T00740047  RH  083%=      5-min Rain = 0
KCH1 220802Z 11006KT 07/05 A2989 RMK A01 T00740046  RH  083%=      5-min Rain = 0
KCH1 220803Z 11006KT 07/05 A2989 RMK A01 T00740047  RH  083%=      5-min Rain = 0
KCH1 220804Z 12006KT 07/05 A2989 RMK A01 T00740047  RH  083%=      5-min Rain = 0
KCH1 220805Z 12006KT 07/05 A2989 RMK A01 T00740047  RH  083%=      5-min Rain = 0
KCH1 220806Z 12006KT 07/05 A2989 RMK A01 T00740047  RH  083%=      5-min Rain = 0
KCH1 220807Z 11007KT 07/05 A2989 RMK A01 T00740047  RH  083%=      5-min Rain = 0
KCH1 220808Z 11007KT 07/05 A2989 RMK A01 T00740047  RH  083%=      5-min Rain = 0
KCH1 220809Z 11007KT 07/05 A2989 RMK A01 T00740047  RH  083%=      5-min Rain = 0
KCH1 220810Z 11006KT 07/05 A2989 RMK A01 T00740047  RH  083%=      5-min Rain = 0
KCH1 220811Z 11005KT 07/05 A2989 RMK A01 T00740048  RH  083%=      5-min Rain = 0
KCH1 220812Z 12007KT 07/05 A2989 RMK A01 T00740048  RH  083%=      5-min Rain = 0
KCH1 220813Z 11007KT 07/05 A2989 RMK A01 T00740048  RH  083%=      5-min Rain = 0
KCH1 220814Z 11008KT 07/05 A2989 RMK A01 T00740047  RH  083%=      5-min Rain = 0
KCH1 220815Z 12009KT 07/05 A2989 RMK A01 T00740048  RH  083%=      5-min Rain = 0
KCH1 220816Z 12007KT 08/05 A2989 RMK A01 T00750048  RH  083%=      5-min Rain = 0
KCH1 220817Z 12007KT 08/05 A2989 RMK A01 T00750048  RH  083%=      5-min Rain = 0
KCH1 220818Z 13006KT 08/05 A2989 RMK A01 T00750048  RH  083%=      5-min Rain = 0
KCH1 220819Z 12006KT 08/05 A2989 RMK A01 T00750048  RH  083%=      5-min Rain = 0
KCH1 220820Z 11007KT 08/05 A2989 RMK A01 T00750048  RH  083%=      5-min Rain = 0
KCH1 220821Z 12006KT 08/05 A2989 RMK A01 T00750048  RH  083%=      5-min Rain = 0
KCH1 220822Z 12007KT 08/05 A2989 RMK A01 T00750048  RH  083%=      5-min Rain = 0
KCH1 220823Z 12006KT 08/05 A2989 RMK A01 T00750048  RH  083%=      5-min Rain = 0
KCH1 220824Z 11006KT 08/05 A2989 RMK A01 T00750049  RH  084%=      5-min Rain = 0
KCH1 220825Z 11006KT 08/05 A2989 RMK A01 T00750049  RH  084%=      5-min Rain = 0
KCH1 220826Z 12006KT 08/05 A2989 RMK A01 T00750049  RH  084%=      5-min Rain = 0
KCH1 220827Z 12007KT 08/05 A2989 RMK A01 T00750049  RH  084%=      5-min Rain = 0
KCH1 220828Z 12008KT 08/05 A2989 RMK A01 T00750049  RH  084%=      5-min Rain = 0
KCH1 220829Z 12006KT 08/05 A2989 RMK A01 T00750049  RH  084%=      5-min Rain = 0
KCH1 220830Z 12006KT 08/05 A2989 RMK A01 T00750049  RH  084%=      5-min Rain = 0
KCH1 220831Z 12006KT 08/05 A2989 RMK A01 T00750050  RH  084%=      5-min Rain = 0
KCH1 220832Z 12005KT 08/05 A2989 RMK A01 T00750050  RH  084%=      5-min Rain = 0
KCH1 220833Z 12006KT 08/05 A2989 RMK A01 T00750050  RH  084%=      5-min Rain = 0
KCH1 220834Z 12007KT 08/05 A2989 RMK A01 T00750050  RH  084%=      5-min Rain = 0
KCH1 220835Z 12007KT 08/05 A2988 RMK A01 T00750050  RH  084%=      5-min Rain = 0
KCH1 220836Z 11008KT 08/05 A2988 RMK A01 T00750051  RH  084%=      5-min Rain = 0
KCH1 220837Z 11007KT 08/05 A2988 RMK A01 T00750051  RH  084%=      5-min Rain = 0
KCH1 220838Z 10007G12KT 08/05 A2988 RMK A01 T00750051  RH  084%=      5-min Rain = 0
KCH1 220839Z 11008KT 08/05 A2988 RMK A01 T00750052  RH  085%=      5-min Rain = 0
KCH1 220840Z 11008KT 08/05 A2988 RMK A01 T00760052  RH  085%=      5-min Rain = 0
KCH1 220841Z 12009KT 08/05 A2988 RMK A01 T00760052  RH  085%=      5-min Rain = 0
KCH1 220842Z 11009KT 08/05 A2988 RMK A01 T00760053  RH  085%=      5-min Rain = 0
KCH1 220843Z 11008KT 08/05 A2988 RMK A01 T00760053  RH  085%=      5-min Rain = 0
KCH1 220844Z 12008KT 08/05 A2988 RMK A01 T00760053  RH  085%=      5-min Rain = 0
KCH1 220845Z 11009KT 08/05 A2988 RMK A01 T00760053  RH  085%=      5-min Rain = 0
KCH1 220846Z 12008KT 08/05 A2988 RMK A01 T00760053  RH  085%=      5-min Rain = 0
KCH1 220847Z 13007KT 08/05 A2988 RMK A01 T00760054  RH  086%=      5-min Rain = 0
KCH1 220848Z 12007KT 08/05 A2988 RMK A01 T00760054  RH  086%=      5-min Rain = 0
KCH1 220849Z 13008KT 08/05 A2988 RMK A01 T00760054  RH  086%=      5-min Rain = 0
KCH1 220850Z 12006KT 08/05 A2988 RMK A01 T00760054  RH  086%=      5-min Rain = 0
KCH1 220851Z 11006KT 08/05 A2988 RMK A01 T00760054  RH  086%=      5-min Rain = 0
KCH1 220852Z 12007KT 08/05 A2988 RMK A01 T00760054  RH  086%=      5-min Rain = 0
KCH1 220853Z 13008KT 08/05 A2988 RMK A01 T00760054  RH  086%=      5-min Rain = 0
KCH1 220854Z 14007KT 08/05 A2988 RMK A01 T00760054  RH  086%=      5-min Rain = 0
KCH1 220855Z 13008KT 08/06 A2989 RMK A01 T00760055  RH  086%=      5-min Rain = 0
KCH1 220856Z 13007KT 08/06 A2989 RMK A01 T00760055  RH  086%=      5-min Rain = 0
KCH1 220857Z 13008KT 08/05 A2989 RMK A01 T00760054  RH  086%=      5-min Rain = 0
KCH1 220858Z 13007KT 08/06 A2989 RMK A01 T00760055  RH  087%=      5-min Rain = 0
KCH1 220859Z 14007KT 08/06 A2989 RMK A01 T00760055  RH  087%=      5-min Rain = 0
KCH1 220900Z 14008KT 08/06 A2989 RMK A01 T00760055  RH  087%=      5-min Rain = 0
KCH1 220901Z 14007KT 08/06 A2989 RMK A01 T00760055  RH  087%=      5-min Rain = 0
KCH1 220902Z 14008KT 08/06 A2989 RMK A01 T00760056  RH  087%=      5-min Rain = 0
KCH1 220903Z 14008KT 08/06 A2989 RMK A01 T00760056  RH  087%=      5-min Rain = 0
KCH1 220904Z 14008KT 08/06 A299 RMK A01 T00760056  RH  087%=      5-min Rain = 0
KCH1 220905Z 14009KT 08/06 A299 RMK A01 T00760056  RH  087%=      5-min Rain = 0
KCH1 220906Z 15009KT 08/06 A299 RMK A01 T00760056  RH  087%=      5-min Rain = 0
KCH1 220907Z 14009KT 08/06 A299 RMK A01 T00760056  RH  087%=      5-min Rain = 0
KCH1 220908Z 14009KT 08/06 A299 RMK A01 T00760056  RH  087%=      5-min Rain = 0
KCH1 220909Z 15008KT 08/06 A299 RMK A01 T00760056  RH  087%=      5-min Rain = 0
KCH1 220910Z 14006KT 08/06 A299 RMK A01 T00760056  RH  087%=      5-min Rain = 0
KCH1 220911Z 14009KT 08/06 A299 RMK A01 T00760056  RH  087%=      5-min Rain = 0
KCH1 220912Z 14009KT 08/06 A299 RMK A01 T00760056  RH  087%=      5-min Rain = 0
KCH1 220913Z 13008KT 08/06 A299 RMK A01 T00760056  RH  087%=      5-min Rain = 0
KCH1 220914Z 14007KT 08/06 A299 RMK A01 T00760056  RH  087%=      5-min Rain = 0
KCH1 220915Z 15008KT 08/06 A299 RMK A01 T00760056  RH  087%=      5-min Rain = 0
KCH1 220916Z 14008KT 08/06 A299 RMK A01 T00760056  RH  087%=      5-min Rain = 0
KCH1 220917Z 15006KT 08/06 A299 RMK A01 T00760056  RH  087%=      5-min Rain = 0
KCH1 220918Z 15007KT 08/06 A299 RMK A01 T00760056  RH  087%=      5-min Rain = 0
KCH1 220919Z 15007KT 08/06 A299 RMK A01 T00760056  RH  087%=      5-min Rain = 0
KCH1 220920Z 14007KT 08/06 A299 RMK A01 T00760056  RH  087%=      5-min Rain = 0
KCH1 220921Z 15008KT 08/06 A299 RMK A01 T00760056  RH  088%=      5-min Rain = 0
KCH1 220922Z 14007KT 08/06 A299 RMK A01 T00750056  RH  088%=      5-min Rain = 0
KCH1 220923Z 14007KT 08/06 A299 RMK A01 T00750056  RH  088%=      5-min Rain = 0
KCH1 220924Z 16006KT 08/06 A299 RMK A01 T00750056  RH  088%=      5-min Rain = 0
KCH1 220925Z 15006KT 08/06 A299 RMK A01 T00750056  RH  088%=      5-min Rain = 0
KCH1 220926Z 16006KT 08/06 A299 RMK A01 T00750057  RH  088%=      5-min Rain = 0
KCH1 220927Z 15006KT 08/06 A299 RMK A01 T00750057  RH  088%=      5-min Rain = 0
KCH1 220928Z 15005KT 08/06 A299 RMK A01 T00750057  RH  088%=      5-min Rain = 0
KCH1 220929Z 15004KT 08/06 A299 RMK A01 T00750057  RH  088%=      5-min Rain = 0
KCH1 220930Z 15006KT 08/06 A299 RMK A01 T00750057  RH  088%=      5-min Rain = 0
KCH1 220931Z 16004KT 08/06 A299 RMK A01 T00750057  RH  088%=      5-min Rain = 0
KCH1 220932Z 17004KT 08/06 A299 RMK A01 T00750057  RH  088%=      5-min Rain = 0
KCH1 220933Z 15003KT 08/06 A299 RMK A01 T00750057  RH  089%=      5-min Rain = 0
KCH1 220934Z 15006KT 08/06 A2991 RMK A01 T00750057  RH  089%=      5-min Rain = 0
KCH1 220935Z 15007KT 08/06 A2991 RMK A01 T00750057  RH  089%=      5-min Rain = 0
KCH1 220936Z 16008KT 08/06 A2991 RMK A01 T00750058  RH  089%=      5-min Rain = 0
KCH1 220937Z 15007KT 08/06 A2991 RMK A01 T00750058  RH  089%=      5-min Rain = 0
KCH1 220938Z 15006KT 08/06 A2991 RMK A01 T00750058  RH  089%=      5-min Rain = 0
KCH1 220939Z 15007KT 08/06 A2991 RMK A01 T00750058  RH  089%=      5-min Rain = 0
KCH1 220940Z 15006KT 08/06 A2991 RMK A01 T00750058  RH  089%=      5-min Rain = 0
KCH1 220941Z 15009KT 08/06 A2991 RMK A01 T00750058  RH  089%=      5-min Rain = 0
KCH1 220942Z 15008KT 08/06 A299 RMK A01 T00750058  RH  089%=      5-min Rain = 0
KCH1 220943Z 15007KT 08/06 A299 RMK A01 T00750058  RH  089%=      5-min Rain = 0
KCH1 220944Z 15007KT 08/06 A299 RMK A01 T00750058  RH  089%=      5-min Rain = 0
KCH1 220945Z 15005KT 08/06 A299 RMK A01 T00750058  RH  089%=      5-min Rain = 0
KCH1 220946Z 15007KT 08/06 A299 RMK A01 T00750058  RH  089%=      5-min Rain = 0
KCH1 220947Z 15005KT 08/06 A299 RMK A01 T00750059  RH  089%=      5-min Rain = 0
KCH1 220948Z 15008KT 08/06 A299 RMK A01 T00750059  RH  090%=      5-min Rain = 0
KCH1 220949Z 15008KT 08/06 A299 RMK A01 T00750059  RH  090%=      5-min Rain = 0
KCH1 220950Z 15008KT 08/06 A299 RMK A01 T00750059  RH  090%=      5-min Rain = 0
KCH1 220951Z 16007KT 08/06 A299 RMK A01 T00750059  RH  090%=      5-min Rain = 0
KCH1 220952Z 15008KT 08/06 A299 RMK A01 T00750059  RH  090%=      5-min Rain = 0
KCH1 220953Z 15007KT 08/06 A299 RMK A01 T00750059  RH  090%=      5-min Rain = 0
KCH1 220954Z 14005KT 08/06 A299 RMK A01 T00750059  RH  090%=      5-min Rain = 0
KCH1 220955Z 13004KT 08/06 A299 RMK A01 T00750059  RH  090%=      5-min Rain = 0
KCH1 220956Z 13006KT 08/06 A299 RMK A01 T00750059  RH  090%=      5-min Rain = 0
KCH1 220957Z 14007KT 08/06 A299 RMK A01 T00750059  RH  090%=      5-min Rain = 0
KCH1 220958Z 14005KT 08/06 A299 RMK A01 T00750059  RH  090%=      5-min Rain = 0
KCH1 220959Z 13006KT 08/06 A299 RMK A01 T00750059  RH  090%=      5-min Rain = 0
KCH1 221000Z 13007KT 08/06 A299 RMK A01 T00750059  RH  089%=      5-min Rain = 0
KCH1 221001Z 13006KT 08/06 A299 RMK A01 T00750058  RH  089%=      5-min Rain = 0
KCH1 221002Z 12005KT 08/06 A299 RMK A01 T00750059  RH  089%=      5-min Rain = 0
KCH1 221003Z 13007KT 08/06 A299 RMK A01 T00750058  RH  089%=      5-min Rain = 0
KCH1 221004Z 12006KT 08/06 A299 RMK A01 T00750058  RH  089%=      5-min Rain = 0
KCH1 221005Z 13006KT 08/06 A299 RMK A01 T00750058  RH  089%=      5-min Rain = 0
KCH1 221006Z 13005KT 08/06 A299 RMK A01 T00750058  RH  089%=      5-min Rain = 0
KCH1 221007Z 13006KT 08/06 A299 RMK A01 T00750058  RH  089%=      5-min Rain = 0
KCH1 221008Z 13005KT 08/06 A299 RMK A01 T00750058  RH  089%=      5-min Rain = 0
KCH1 221009Z 13005KT 08/06 A299 RMK A01 T00750058  RH  089%=      5-min Rain = 0
KCH1 221010Z 12006KT 08/06 A299 RMK A01 T00750058  RH  089%=      5-min Rain = 0
KCH1 221011Z 12006KT 08/06 A299 RMK A01 T00750058  RH  089%=      5-min Rain = 0
KCH1 221012Z 12008KT 08/06 A299 RMK A01 T00750058  RH  089%=      5-min Rain = 0
KCH1 221013Z 12008KT 08/06 A299 RMK A01 T00750058  RH  089%=      5-min Rain = 0
KCH1 221014Z 13006KT 08/06 A299 RMK A01 T00750058  RH  089%=      5-min Rain = 0
KCH1 221015Z 12005KT 08/06 A2989 RMK A01 T00750058  RH  089%=      5-min Rain = 0
KCH1 221016Z 12006KT 08/06 A2989 RMK A01 T00750058  RH  089%=      5-min Rain = 0
KCH1 221017Z 12006KT 07/06 A2989 RMK A01 T00740058  RH  089%=      5-min Rain = 0
KCH1 221018Z 13005KT 07/06 A2989 RMK A01 T00740058  RH  089%=      5-min Rain = 0
KCH1 221019Z 13005KT 07/06 A299 RMK A01 T00740058  RH  089%=      5-min Rain = 0
KCH1 221020Z 12006KT 07/06 A299 RMK A01 T00740058  RH  089%=      5-min Rain = 0
KCH1 221021Z 12004KT 07/06 A299 RMK A01 T00740058  RH  089%=      5-min Rain = 0
KCH1 221022Z 10005KT 07/06 A2989 RMK A01 T00740058  RH  089%=      5-min Rain = 0
KCH1 221023Z 12006KT 07/06 A299 RMK A01 T00740058  RH  089%=      5-min Rain = 0
KCH1 221024Z 12005KT 07/06 A299 RMK A01 T00740058  RH  089%=      5-min Rain = 0
KCH1 221025Z 13007KT 07/06 A299 RMK A01 T00740058  RH  089%=      5-min Rain = 0
KCH1 221026Z 12008KT 07/06 A299 RMK A01 T00740058  RH  089%=      5-min Rain = 0
KCH1 221027Z 13007KT 07/06 A299 RMK A01 T00740057  RH  089%=      5-min Rain = 0
KCH1 221028Z 13006KT 07/06 A299 RMK A01 T00740057  RH  089%=      5-min Rain = 0
KCH1 221029Z 14007KT 07/06 A299 RMK A01 T00740058  RH  089%=      5-min Rain = 0
KCH1 221030Z 13006KT 07/06 A299 RMK A01 T00740058  RH  090%=      5-min Rain = 0
KCH1 221031Z 12006KT 07/06 A299 RMK A01 T00740058  RH  090%=      5-min Rain = 0
KCH1 221032Z 12009KT 07/06 A299 RMK A01 T00740058  RH  090%=      5-min Rain = 0
KCH1 221033Z 12007KT 07/06 A299 RMK A01 T00740059  RH  090%=      5-min Rain = 0
KCH1 221034Z 13009KT 07/06 A299 RMK A01 T00730058  RH  090%=      5-min Rain = 0
KCH1 221035Z 12008KT 07/06 A299 RMK A01 T00730059  RH  091%=      5-min Rain = 0
KCH1 221036Z 12007KT 07/06 A299 RMK A01 T00730059  RH  091%=      5-min Rain = 0
KCH1 221037Z 12007KT 07/06 A299 RMK A01 T00730060  RH  091%=      5-min Rain = 0
KCH1 221038Z 12006KT 07/06 A299 RMK A01 T00730060  RH  092%=      5-min Rain = 0
KCH1 221039Z 11004KT 07/06 A299 RMK A01 T00730060  RH  092%=      5-min Rain = 0
KCH1 221040Z 12006KT 07/06 A299 RMK A01 T00730060  RH  092%=      5-min Rain = 0
KCH1 221041Z 11006KT 07/06 A299 RMK A01 T00730061  RH  092%=      5-min Rain = 0
KCH1 221042Z 12007KT 07/06 A299 RMK A01 T00720061  RH  093%=      5-min Rain = 0
KCH1 221043Z 13007KT 07/06 A299 RMK A01 T00720062  RH  093%=      5-min Rain = 0
KCH1 221044Z 12007KT 07/06 A299 RMK A01 T00720062  RH  093%=      5-min Rain = 0
KCH1 221045Z 12007KT 07/06 A299 RMK A01 T00720062  RH  094%=      5-min Rain = 0
KCH1 221046Z 13007KT 07/06 A299 RMK A01 T00720062  RH  094%=      5-min Rain = 0
KCH1 221047Z 12007KT 07/06 A299 RMK A01 T00710062  RH  094%=      5-min Rain = 0
KCH1 221048Z 12007KT 07/06 A299 RMK A01 T00720063  RH  094%=      5-min Rain = 0
KCH1 221049Z 13008KT 07/06 A299 RMK A01 T00720062  RH  094%=      5-min Rain = 0
KCH1 221050Z 13008KT 07/06 A299 RMK A01 T00720062  RH  094%=      5-min Rain = 0
KCH1 221051Z 13008KT 07/06 A299 RMK A01 T00720063  RH  094%=      5-min Rain = 0
KCH1 221052Z 13008KT 07/06 A299 RMK A01 T00710062  RH  094%=      5-min Rain = 0
KCH1 221053Z 13007KT 07/06 A2991 RMK A01 T00720063  RH  094%=      5-min Rain = 0
KCH1 221054Z 13006KT 07/06 A2991 RMK A01 T00720063  RH  094%=      5-min Rain = 0
KCH1 221055Z 14007KT 07/06 A2991 RMK A01 T00720063  RH  094%=      5-min Rain = 0
KCH1 221056Z 14007KT 07/06 A2991 RMK A01 T00710063  RH  094%=      5-min Rain = 0
KCH1 221057Z 13005KT 07/06 A299 RMK A01 T00720063  RH  094%=      5-min Rain = 0
KCH1 221058Z 13006KT 07/06 A299 RMK A01 T00720063  RH  094%=      5-min Rain = 0
KCH1 221059Z 13008KT 07/06 A299 RMK A01 T00710063  RH  094%=      5-min Rain = 0
KCH1 221100Z 13008KT 07/06 A2991 RMK A01 T00720064  RH  095%=      5-min Rain = 0
KCH1 221101Z 13006KT 07/06 A299 RMK A01 T00720064  RH  095%=      5-min Rain = 0
KCH1 221102Z 14007KT 07/06 A299 RMK A01 T00720064  RH  095%=      5-min Rain = 0
KCH1 221103Z 13005KT 07/06 A299 RMK A01 T00720064  RH  095%=      5-min Rain = 0
KCH1 221104Z 14006KT 07/07 A299 RMK A01 T00720065  RH  095%=      5-min Rain = 0
KCH1 221105Z 13005KT 07/06 A299 RMK A01 T00720064  RH  095%=      5-min Rain = 0
KCH1 221106Z 13007KT 07/07 A2991 RMK A01 T00710065  RH  095%=      5-min Rain = 0
KCH1 221107Z 13007KT 07/07 A2991 RMK A01 T00720065  RH  096%=      5-min Rain = 0
KCH1 221108Z 13006KT 07/07 A2991 RMK A01 T00710065  RH  096%=      5-min Rain = 0
KCH1 221109Z 13006KT 07/07 A2991 RMK A01 T00710065  RH  096%=      5-min Rain = 0
KCH1 221110Z 12006KT 07/07 A2991 RMK A01 T00710065  RH  096%=      5-min Rain = 0
KCH1 221111Z 12006KT 07/07 A2991 RMK A01 T00710066  RH  096%=      5-min Rain = 0
KCH1 221112Z 12007KT 07/07 A2991 RMK A01 T00710066  RH  097%=      5-min Rain = 0
KCH1 221113Z 13006KT 07/07 A2991 RMK A01 T00710066  RH  097%=      5-min Rain = 0
KCH1 221114Z 12006KT 07/07 A2991 RMK A01 T00710066  RH  097%=      5-min Rain = 0
KCH1 221115Z 12005KT 07/07 A2991 RMK A01 T00710067  RH  097%=      5-min Rain = 0
KCH1 221116Z 11004KT 07/07 A2991 RMK A01 T00710067  RH  097%=      5-min Rain = 0
KCH1 221117Z 11005KT 07/07 A2991 RMK A01 T00710067  RH  097%=      5-min Rain = 0
KCH1 221118Z 12006KT 07/07 A2991 RMK A01 T00710067  RH  097%=      5-min Rain = 0
KCH1 221119Z 12006KT 07/07 A2991 RMK A01 T00710067  RH  097%=      5-min Rain = 0
KCH1 221120Z 11006KT 07/07 A2991 RMK A01 T00710067  RH  097%=      5-min Rain = 0
KCH1 221121Z 10005KT 07/07 A299 RMK A01 T00710067  RH  097%=      5-min Rain = 0
KCH1 221122Z 09005KT 07/07 A299 RMK A01 T00710067  RH  098%=      5-min Rain = 0
KCH1 221123Z 10005KT 07/07 A299 RMK A01 T00710067  RH  098%=      5-min Rain = 0
KCH1 221124Z 11005KT 07/07 A299 RMK A01 T00710067  RH  098%=      5-min Rain = 0
KCH1 221125Z 12007KT 07/07 A2991 RMK A01 T00710067  RH  098%=      5-min Rain = 0
KCH1 221126Z 12006KT 07/07 A2991 RMK A01 T00710067  RH  098%=      5-min Rain = 0
KCH1 221127Z 11006KT 07/07 A2991 RMK A01 T00710067  RH  098%=      5-min Rain = 0
KCH1 221128Z 13004KT 07/07 A2991 RMK A01 T00700067  RH  098%=      5-min Rain = 0
KCH1 221129Z 12004KT 07/07 A2991 RMK A01 T00710067  RH  098%=      5-min Rain = 0
KCH1 221130Z 12006KT 07/07 A2991 RMK A01 T00710067  RH  098%=      5-min Rain = 0
KCH1 221131Z 12006KT 07/07 A2991 RMK A01 T00710067  RH  098%=      5-min Rain = 0
KCH1 221132Z 12006KT 07/07 A2991 RMK A01 T00710067  RH  098%=      5-min Rain = 0
KCH1 221133Z 12007KT 07/07 A2991 RMK A01 T00710067  RH  098%=      5-min Rain = 0
KCH1 221134Z 11007KT 07/07 A2991 RMK A01 T00710067  RH  098%=      5-min Rain = 0
KCH1 221135Z 12006KT 07/07 A2991 RMK A01 T00710067  RH  098%=      5-min Rain = 0
KCH1 221136Z 12006KT 07/07 A2991 RMK A01 T00710067  RH  098%=      5-min Rain = 0
KCH1 221137Z 11007KT 07/07 A2991 RMK A01 T00710067  RH  098%=      5-min Rain = 0
KCH1 221138Z 11008KT 07/07 A2991 RMK A01 T00710067  RH  098%=      5-min Rain = 0
KCH1 221139Z 11007KT 07/07 A2991 RMK A01 T00710067  RH  098%=      5-min Rain = 0
KCH1 221140Z 12005KT 07/07 A2991 RMK A01 T00710067  RH  098%=      5-min Rain = 0
KCH1 221141Z 12006KT 07/07 A2991 RMK A01 T00710068  RH  098%=      5-min Rain = 0
KCH1 221142Z 12006KT 07/07 A2991 RMK A01 T00710067  RH  098%=      5-min Rain = 0
KCH1 221143Z 12005KT 07/07 A2991 RMK A01 T00710068  RH  098%=      5-min Rain = 0
KCH1 221144Z 12006KT 07/07 A2991 RMK A01 T00710068  RH  098%=      5-min Rain = 0
KCH1 221145Z 12005KT 07/07 A2991 RMK A01 T00710067  RH  098%=      5-min Rain = 0
KCH1 221146Z 12006KT 07/07 A2991 RMK A01 T00710067  RH  098%=      5-min Rain = 0
KCH1 221147Z 12006KT 07/07 A2991 RMK A01 T00710068  RH  098%=      5-min Rain = 0
KCH1 221148Z 11005KT 07/07 A2991 RMK A01 T00700067  RH  098%=      5-min Rain = 0
KCH1 221149Z 11005KT 07/07 A2991 RMK A01 T00700067  RH  098%=      5-min Rain = 0
KCH1 221150Z 11006KT 07/07 A2991 RMK A01 T00700067  RH  098%=      5-min Rain = 0
KCH1 221151Z 11006KT 07/07 A2991 RMK A01 T00700067  RH  098%=      5-min Rain = 0
KCH1 221152Z 11006KT 07/07 A2992 RMK A01 T00700067  RH  098%=      5-min Rain = 0
KCH1 221153Z 10005KT 07/07 A2992 RMK A01 T00700067  RH  098%=      5-min Rain = 0
KCH1 221154Z 11005KT 07/07 A2992 RMK A01 T00700066  RH  098%=      5-min Rain = 0
KCH1 221155Z 13005KT 07/07 A2992 RMK A01 T00700066  RH  098%=      5-min Rain = 0
KCH1 221156Z 12005KT 07/07 A2992 RMK A01 T00700066  RH  098%=      5-min Rain = 0
KCH1 221157Z 12006KT 07/07 A2992 RMK A01 T00700067  RH  098%=      5-min Rain = 0
KCH1 221158Z 12005KT 07/07 A2992 RMK A01 T00700067  RH  098%=      5-min Rain = 0
KCH1 221159Z 13005KT 07/07 A2992 RMK A01 T00700067  RH  098%=      5-min Rain = 0
KCH1 221200Z 12005KT 07/07 A2992 RMK A01 T00700067  RH  098%=      5-min Rain = 0
KCH1 221201Z 12004KT 07/07 A2992 RMK A01 T00700067  RH  098%=      5-min Rain = 0
KCH1 221202Z 12005KT 07/07 A2992 RMK A01 T00700067  RH  098%=      5-min Rain = 0
KCH1 221203Z 11005KT 07/07 A2992 RMK A01 T00700067  RH  098%=      5-min Rain = 0
KCH1 221204Z 12005KT 07/07 A2992 RMK A01 T00700067  RH  098%=      5-min Rain = 0
KCH1 221205Z 11005KT 07/07 A2992 RMK A01 T00700067  RH  098%=      5-min Rain = 0
KCH1 221206Z 11004KT 07/07 A2992 RMK A01 T00700067  RH  098%=      5-min Rain = 0
KCH1 221207Z 11005KT 07/07 A2992 RMK A01 T00700067  RH  098%=      5-min Rain = 0
KCH1 221208Z 10005KT 07/07 A2992 RMK A01 T00700067  RH  098%=      5-min Rain = 0
KCH1 221209Z 11005KT 07/07 A2992 RMK A01 T00700067  RH  098%=      5-min Rain = 0
KCH1 221210Z 11006KT 07/07 A2992 RMK A01 T00690067  RH  098%=      5-min Rain = 0
KCH1 221211Z 11005KT 07/07 A2992 RMK A01 T00700067  RH  098%=      5-min Rain = 0
KCH1 221212Z 12004KT 07/07 A2993 RMK A01 T00690067  RH  098%=      5-min Rain = 0
KCH1 221213Z 10004KT 07/07 A2993 RMK A01 T00690067  RH  098%=      5-min Rain = 0
KCH1 221214Z 12005KT 07/07 A2993 RMK A01 T00690067  RH  098%=      5-min Rain = 0
KCH1 221215Z 10005KT 07/07 A2993 RMK A01 T00700068  RH  099%=      5-min Rain = 0
KCH1 221216Z 10005KT 07/07 A2993 RMK A01 T00690067  RH  099%=      5-min Rain = 0
KCH1 221217Z 10005KT 07/07 A2993 RMK A01 T00690067  RH  099%=      5-min Rain = 0
KCH1 221218Z 09005KT 07/07 A2993 RMK A01 T00690067  RH  099%=      5-min Rain = 0
KCH1 221219Z 10004KT 07/07 A2993 RMK A01 T00690067  RH  099%=      5-min Rain = 0
KCH1 221220Z 11004KT 07/07 A2993 RMK A01 T00690067  RH  099%=      5-min Rain = 0
KCH1 221221Z 10006KT 07/07 A2993 RMK A01 T00690067  RH  099%=      5-min Rain = 0
KCH1 221222Z 10005KT 07/07 A2993 RMK A01 T00690067  RH  099%=      5-min Rain = 0
KCH1 221223Z 10007KT 07/07 A2993 RMK A01 T00690068  RH  099%=      5-min Rain = 0
KCH1 221224Z 10006KT 07/07 A2993 RMK A01 T00690068  RH  099%=      5-min Rain = 0
KCH1 221225Z 10005KT 07/07 A2993 RMK A01 T00690068  RH  099%=      5-min Rain = 0
KCH1 221226Z 09004KT 07/07 A2993 RMK A01 T00690068  RH  099%=      5-min Rain = 0
KCH1 221227Z 09003KT 07/07 A2993 RMK A01 T00690068  RH  099%=      5-min Rain = 0
KCH1 221228Z 10004KT 07/07 A2993 RMK A01 T00690068  RH  099%=      5-min Rain = 0
KCH1 221229Z 10005KT 07/07 A2993 RMK A01 T00690068  RH  099%=      5-min Rain = 0
KCH1 221230Z 08002KT 07/07 A2993 RMK A01 T00690068  RH  099%=      5-min Rain = 0
KCH1 221231Z 09003KT 07/07 A2993 RMK A01 T00690068  RH  099%=      5-min Rain = 0
KCH1 221232Z 07003KT 07/07 A2993 RMK A01 T00690068  RH  099%=      5-min Rain = 0
KCH1 221233Z 08004KT 07/07 A2993 RMK A01 T00690068  RH  099%=      5-min Rain = 0
KCH1 221234Z 08004KT 07/07 A2994 RMK A01 T00690068  RH  099%=      5-min Rain = 0
KCH1 221235Z 08003KT 07/07 A2994 RMK A01 T00690068  RH  099%=      5-min Rain = 0
KCH1 221236Z 06002KT 07/07 A2994 RMK A01 T00690068  RH  099%=      5-min Rain = 0
KCH1 221237Z 06002KT 07/07 A2994 RMK A01 T00680068  RH  099%=      5-min Rain = 0
KCH1 221238Z 07002KT 07/07 A2994 RMK A01 T00680068  RH  100%=      5-min Rain = 0
KCH1 221239Z 09003KT 07/07 A2994 RMK A01 T00680068  RH  100%=      5-min Rain = 0
KCH1 221240Z 08003KT 07/07 A2994 RMK A01 T00680068  RH  100%=      5-min Rain = 0
KCH1 221241Z 09002KT 07/07 A2994 RMK A01 T00680068  RH  100%=      5-min Rain = 0
KCH1 221242Z 08003KT 07/07 A2994 RMK A01 T00690068  RH  100%=      5-min Rain = 0
KCH1 221243Z 07003KT 07/07 A2994 RMK A01 T00680068  RH  100%=      5-min Rain = 0
KCH1 221244Z 07004KT 07/07 A2994 RMK A01 T00680068  RH  100%=      5-min Rain = 0
KCH1 221245Z 08003KT 07/07 A2994 RMK A01 T00680068  RH  100%=      5-min Rain = 0
KCH1 221246Z 08003KT 07/07 A2994 RMK A01 T00690068  RH  100%=      5-min Rain = 0
KCH1 221247Z 08003KT 07/07 A2994 RMK A01 T00690068  RH  100%=      5-min Rain = 0
KCH1 221248Z 09003KT 07/07 A2994 RMK A01 T00680068  RH  100%=      5-min Rain = 0
KCH1 221249Z 08003KT 07/07 A2994 RMK A01 T00680068  RH  100%=      5-min Rain = 0
KCH1 221250Z 09003KT 07/07 A2994 RMK A01 T00690068  RH  100%=      5-min Rain = 0
KCH1 221251Z 09003KT 07/07 A2994 RMK A01 T00680068  RH  100%=      5-min Rain = 0
KCH1 221252Z 09002KT 07/07 A2994 RMK A01 T00680068  RH  100%=      5-min Rain = 0
KCH1 221253Z 10003KT 07/07 A2994 RMK A01 T00690068  RH  100%=      5-min Rain = 0
KCH1 221254Z 10003KT 07/07 A2994 RMK A01 T00680068  RH  100%=      5-min Rain = 0
KCH1 221255Z 09003KT 07/07 A2994 RMK A01 T00680068  RH  100%=      5-min Rain = 0
KCH1 221256Z 08003KT 07/07 A2994 RMK A01 T00680068  RH  100%=      5-min Rain = 0
KCH1 221257Z 07003KT 07/07 A2994 RMK A01 T00680068  RH  100%=      5-min Rain = 0
KCH1 221258Z 08002KT 07/07 A2994 RMK A01 T00690068  RH  100%=      5-min Rain = 0
KCH1 221259Z 08002KT 07/07 A2994 RMK A01 T00690069  RH  100%=      5-min Rain = 0
KCH1 221300Z 08002KT 07/07 A2994 RMK A01 T00690069  RH  100%=      5-min Rain = 0
KCH1 221301Z 08002KT 07/07 A2994 RMK A01 T00690069  RH  100%=      5-min Rain = 0
KCH1 221302Z 06001KT 07/07 A2994 RMK A01 T00690069  RH  100%=      5-min Rain = 0
KCH1 221303Z 07002KT 07/07 A2994 RMK A01 T00690069  RH  100%=      5-min Rain = 0
KCH1 221304Z 06002KT 07/07 A2994 RMK A01 T00690069  RH  100%=      5-min Rain = 0
KCH1 221305Z 04002KT 07/07 A2994 RMK A01 T00690069  RH  100%=      5-min Rain = 0
KCH1 221306Z 04002KT 07/07 A2994 RMK A01 T00690069  RH  100%=      5-min Rain = 0
KCH1 221307Z 05003KT 07/07 A2994 RMK A01 T00690069  RH  100%=      5-min Rain = 0
KCH1 221308Z 03002KT 07/07 A2994 RMK A01 T00690069  RH  100%=      5-min Rain = 0
KCH1 221309Z 03002KT 07/07 A2994 RMK A01 T00690069  RH  100%=      5-min Rain = 0
KCH1 221310Z 01002KT 07/07 A2995 RMK A01 T00700070  RH  100%=      5-min Rain = 0
KCH1 221311Z 00003KT 07/07 A2995 RMK A01 T00690069  RH  100%=      5-min Rain = 0
KCH1 221312Z 36003KT 07/07 A2995 RMK A01 T00690069  RH  100%=      5-min Rain = 0
KCH1 221313Z 35003KT 07/07 A2995 RMK A01 T00690069  RH  100%=      5-min Rain = 0
KCH1 221314Z 00003KT 07/07 A2995 RMK A01 T00690069  RH  100%=      5-min Rain = 0
KCH1 221315Z 01003KT 07/07 A2995 RMK A01 T00690069  RH  100%=      5-min Rain = 0
KCH1 221316Z 01003KT 07/07 A2995 RMK A01 T00690069  RH  100%=      5-min Rain = 0
KCH1 221317Z 01002KT 07/07 A2995 RMK A01 T00690069  RH  100%=      5-min Rain = 0
KCH1 221318Z 03002KT 07/07 A2995 RMK A01 T00690069  RH  100%=      5-min Rain = 0
KCH1 221319Z 03003KT 07/07 A2995 RMK A01 T00690069  RH  100%=      5-min Rain = 0
KCH1 221320Z 03002KT 07/07 A2995 RMK A01 T00690069  RH  100%=      5-min Rain = 0
KCH1 221321Z 03001KT 07/07 A2995 RMK A01 T00690069  RH  100%=      5-min Rain = 0
KCH1 221322Z 04002KT 07/07 A2995 RMK A01 T00690069  RH  100%=      5-min Rain = 0
KCH1 221323Z 04002KT 07/07 A2995 RMK A01 T00690069  RH  100%=      5-min Rain = 0
KCH1 221324Z 04003KT 07/07 A2995 RMK A01 T00690069  RH  100%=      5-min Rain = 0
KCH1 221325Z 03002KT 07/07 A2995 RMK A01 T00690069  RH  100%=      5-min Rain = 0
KCH1 221326Z 03003KT 07/07 A2995 RMK A01 T00690069  RH  100%=      5-min Rain = 0
KCH1 221327Z 04003KT 07/07 A2995 RMK A01 T00690069  RH  100%=      5-min Rain = 0
KCH1 221328Z 04002KT 07/07 A2995 RMK A01 T00690069  RH  100%=      5-min Rain = 0
KCH1 221329Z 04001KT 07/07 A2995 RMK A01 T00690069  RH  100%=      5-min Rain = 0
KCH1 221330Z 07001KT 07/07 A2995 RMK A01 T00690069  RH  100%=      5-min Rain = 0
KCH1 221331Z 06001KT 07/07 A2995 RMK A01 T00690070  RH  100%=      5-min Rain = 0
KCH1 221332Z 06002KT 07/07 A2995 RMK A01 T00690069  RH  100%=      5-min Rain = 0
KCH1 221333Z 05003KT 07/07 A2995 RMK A01 T00690069  RH  100%=      5-min Rain = 0
KCH1 221334Z 05003KT 07/07 A2995 RMK A01 T00690069  RH  100%=      5-min Rain = 0
KCH1 221335Z 06004KT 07/07 A2995 RMK A01 T00690069  RH  100%=      5-min Rain = 0
KCH1 221336Z 06003KT 07/07 A2995 RMK A01 T00690069  RH  100%=      5-min Rain = 0
KCH1 221337Z 07004KT 07/07 A2995 RMK A01 T00690069  RH  100%=      5-min Rain = 0
KCH1 221338Z 06004KT 07/07 A2995 RMK A01 T00700070  RH  100%=      5-min Rain = 0
KCH1 221339Z 06004KT 07/07 A2995 RMK A01 T00700070  RH  100%=      5-min Rain = 0
KCH1 221340Z 07004KT 07/07 A2995 RMK A01 T00700070  RH  100%=      5-min Rain = 0
KCH1 221341Z 07004KT 07/07 A2995 RMK A01 T00700070  RH  100%=      5-min Rain = 0
KCH1 221342Z 07004KT 07/07 A2995 RMK A01 T00700070  RH  100%=      5-min Rain = 0
KCH1 221343Z 07004KT 07/07 A2996 RMK A01 T00700070  RH  100%=      5-min Rain = 0
KCH1 221344Z 07004KT 07/07 A2996 RMK A01 T00700070  RH  100%=      5-min Rain = 0
KCH1 221345Z 07004KT 07/07 A2996 RMK A01 T00700070  RH  100%=      5-min Rain = 0
KCH1 221346Z 07004KT 07/07 A2996 RMK A01 T00700070  RH  100%=      5-min Rain = 0
KCH1 221347Z 07004KT 07/07 A2996 RMK A01 T00700070  RH  100%=      5-min Rain = 0
KCH1 221348Z 08003KT 07/07 A2996 RMK A01 T00700070  RH  100%=      5-min Rain = 0
KCH1 221349Z 07003KT 07/07 A2996 RMK A01 T00700070  RH  100%=      5-min Rain = 0
KCH1 221350Z 07003KT 07/07 A2996 RMK A01 T00700070  RH  100%=      5-min Rain = 0
KCH1 221351Z 08002KT 07/07 A2996 RMK A01 T00700070  RH  100%=      5-min Rain = 0
KCH1 221352Z 08002KT 07/07 A2996 RMK A01 T00700070  RH  100%=      5-min Rain = 0
KCH1 221353Z 09002KT 07/07 A2996 RMK A01 T00700070  RH  100%=      5-min Rain = 0
KCH1 221354Z 08002KT 07/07 A2996 RMK A01 T00700070  RH  100%=      5-min Rain = 0
KCH1 221355Z 09001KT 07/07 A2996 RMK A01 T00700070  RH  100%=      5-min Rain = 0
KCH1 221356Z 10002KT 07/07 A2996 RMK A01 T00710071  RH  100%=      5-min Rain = 0
KCH1 221357Z 10002KT 07/07 A2996 RMK A01 T00710071  RH  100%=      5-min Rain = 0
KCH1 221358Z 09002KT 07/07 A2996 RMK A01 T00710071  RH  100%=      5-min Rain = 0
KCH1 221359Z 08002KT 07/07 A2996 RMK A01 T00710071  RH  100%=      5-min Rain = 0
KCH1 221400Z 07002KT 07/07 A2996 RMK A01 T00710071  RH  100%=      5-min Rain = 0
KCH1 221401Z 07002KT 07/07 A2996 RMK A01 T00710071  RH  100%=      5-min Rain = 0
KCH1 221402Z 07002KT 07/07 A2996 RMK A01 T00710071  RH  100%=      5-min Rain = 0
KCH1 221403Z 08002KT 07/07 A2996 RMK A01 T00710071  RH  100%=      5-min Rain = 0
KCH1 221404Z 08003KT 07/07 A2996 RMK A01 T00710071  RH  100%=      5-min Rain = 0
KCH1 221405Z 08003KT 07/07 A2996 RMK A01 T00710071  RH  100%=      5-min Rain = 0
KCH1 221406Z 07004KT 07/07 A2996 RMK A01 T00720072  RH  100%=      5-min Rain = 0
KCH1 221407Z 08004KT 07/07 A2996 RMK A01 T00720072  RH  100%=      5-min Rain = 0
KCH1 221408Z 08004KT 07/07 A2997 RMK A01 T00720072  RH  100%=      5-min Rain = 0
KCH1 221409Z 08005KT 07/07 A2997 RMK A01 T00710071  RH  100%=      5-min Rain = 0
KCH1 221410Z 08005KT 07/07 A2997 RMK A01 T00720072  RH  100%=      5-min Rain = 0
KCH1 221411Z 08005KT 07/07 A2997 RMK A01 T00720072  RH  100%=      5-min Rain = 0
KCH1 221412Z 07005KT 07/07 A2997 RMK A01 T00720072  RH  100%=      5-min Rain = 0
KCH1 221413Z 07005KT 07/07 A2996 RMK A01 T00730073  RH  100%=      5-min Rain = 0
KCH1 221414Z 07005KT 07/07 A2996 RMK A01 T00730073  RH  100%=      5-min Rain = 0
KCH1 221415Z 07005KT 07/07 A2996 RMK A01 T00730073  RH  100%=      5-min Rain = 0
KCH1 221416Z 07005KT 07/07 A2996 RMK A01 T00730073  RH  100%=      5-min Rain = 0
KCH1 221417Z 07005KT 07/07 A2996 RMK A01 T00730073  RH  100%=      5-min Rain = 0
KCH1 221418Z 07005KT 07/07 A2996 RMK A01 T00730073  RH  100%=      5-min Rain = 0
KCH1 221419Z 07005KT 07/07 A2996 RMK A01 T00740074  RH  100%=      5-min Rain = 0
KCH1 221420Z 07004KT 07/07 A2996 RMK A01 T00730073  RH  100%=      5-min Rain = 0
KCH1 221421Z 06005KT 07/07 A2996 RMK A01 T00730074  RH  100%=      5-min Rain = 0
KCH1 221422Z 07005KT 07/07 A2996 RMK A01 T00730074  RH  100%=      5-min Rain = 0
KCH1 221423Z 07004KT 07/07 A2996 RMK A01 T00740074  RH  100%=      5-min Rain = 0
KCH1 221424Z 07005KT 07/07 A2996 RMK A01 T00740074  RH  100%=      5-min Rain = 0
KCH1 221425Z 06005KT 07/08 A2996 RMK A01 T00740075  RH  100%=      5-min Rain = 0
KCH1 221426Z 06005KT 08/08 A2996 RMK A01 T00750075  RH  100%=      5-min Rain = 0
KCH1 221427Z 06006KT 08/08 A2996 RMK A01 T00750075  RH  100%=      5-min Rain = 0
KCH1 221428Z 06005KT 08/08 A2996 RMK A01 T00750075  RH  100%=      5-min Rain = 0
KCH1 221429Z 06005KT 08/08 A2996 RMK A01 T00750075  RH  100%=      5-min Rain = 0
KCH1 221430Z 05005KT 08/08 A2996 RMK A01 T00750075  RH  100%=      5-min Rain = 0
KCH1 221431Z 05004KT 08/08 A2996 RMK A01 T00750076  RH  100%=      5-min Rain = 0
KCH1 221432Z 05005KT 08/08 A2996 RMK A01 T00760076  RH  100%=      5-min Rain = 0
KCH1 221433Z 07006KT 08/08 A2996 RMK A01 T00760076  RH  100%=      5-min Rain = 0
KCH1 221434Z 08006KT 08/08 A2996 RMK A01 T00760076  RH  100%=      5-min Rain = 0
KCH1 221435Z 09005KT 08/08 A2996 RMK A01 T00770077  RH  100%=      5-min Rain = 0
KCH1 221436Z 09006KT 08/08 A2996 RMK A01 T00760077  RH  100%=      5-min Rain = 0
KCH1 221437Z 09006KT 08/08 A2996 RMK A01 T00770077  RH  100%=      5-min Rain = 0
KCH1 221438Z 07005KT 08/08 A2996 RMK A01 T00770077  RH  100%=      5-min Rain = 0
KCH1 221439Z 07005KT 08/08 A2996 RMK A01 T00780078  RH  100%=      5-min Rain = 0
KCH1 221440Z 07004KT 08/08 A2996 RMK A01 T00770078  RH  100%=      5-min Rain = 0
KCH1 221441Z 07003KT 08/08 A2996 RMK A01 T00780078  RH  100%=      5-min Rain = 0
KCH1 221442Z 09004KT 08/08 A2997 RMK A01 T00780078  RH  100%=      5-min Rain = 0
KCH1 221443Z 09004KT 08/08 A2997 RMK A01 T00780078  RH  100%=      5-min Rain = 0
KCH1 221444Z 09004KT 08/08 A2997 RMK A01 T00780078  RH  100%=      5-min Rain = 0
KCH1 221445Z 09004KT 08/08 A2997 RMK A01 T00780078  RH  100%=      5-min Rain = 0
KCH1 221446Z 09004KT 08/08 A2997 RMK A01 T00790079  RH  100%=      5-min Rain = 0
KCH1 221447Z 08004KT 08/08 A2997 RMK A01 T00790079  RH  100%=      5-min Rain = 0
KCH1 221448Z 08005KT 08/08 A2997 RMK A01 T00790079  RH  100%=      5-min Rain = 0
KCH1 221449Z 08004KT 08/08 A2997 RMK A01 T00790080  RH  100%=      5-min Rain = 0
KCH1 221450Z 07005KT 08/08 A2997 RMK A01 T00800080  RH  100%=      5-min Rain = 0
KCH1 221451Z 07005KT 08/08 A2997 RMK A01 T00800081  RH  100%=      5-min Rain = 0
KCH1 221452Z 07005KT 08/08 A2997 RMK A01 T00810081  RH  100%=      5-min Rain = 0
KCH1 221453Z 09005KT 08/08 A2997 RMK A01 T00820082  RH  100%=      5-min Rain = 0
KCH1 221454Z 09006KT 08/08 A2997 RMK A01 T00820082  RH  100%=      5-min Rain = 0
KCH1 221455Z 09006KT 08/08 A2997 RMK A01 T00820082  RH  100%=      5-min Rain = 0
KCH1 221456Z 09005KT 08/08 A2997 RMK A01 T00820082  RH  100%=      5-min Rain = 0
KCH1 221457Z 09005KT 08/08 A2997 RMK A01 T00830083  RH  100%=      5-min Rain = 0
KCH1 221458Z 09005KT 08/08 A2997 RMK A01 T00830083  RH  100%=      5-min Rain = 0
KCH1 221459Z 10005KT 08/08 A2997 RMK A01 T00830083  RH  100%=      5-min Rain = 0
KCH1 221500Z 10004KT 08/08 A2997 RMK A01 T00830083  RH  100%=      5-min Rain = 0
KCH1 221501Z 10005KT 08/08 A2997 RMK A01 T00840084  RH  100%=      5-min Rain = 0
KCH1 221502Z 09005KT 09/09 A2997 RMK A01 T00850085  RH  100%=      5-min Rain = 0
KCH1 221503Z 10004KT 09/09 A2997 RMK A01 T00850085  RH  100%=      5-min Rain = 0
KCH1 221504Z 10004KT 09/09 A2997 RMK A01 T00850085  RH  100%=      5-min Rain = 0
KCH1 221505Z 10004KT 09/09 A2997 RMK A01 T00860086  RH  100%=      5-min Rain = 0
KCH1 221506Z 11004KT 09/09 A2997 RMK A01 T00860086  RH  100%=      5-min Rain = 0
KCH1 221507Z 09006KT 09/09 A2997 RMK A01 T00860086  RH  100%=      5-min Rain = 0
KCH1 221508Z 09005KT 09/09 A2997 RMK A01 T00850085  RH  100%=      5-min Rain = 0
KCH1 221509Z 10005KT 09/09 A2997 RMK A01 T00850085  RH  100%=      5-min Rain = 0
KCH1 221510Z 09004KT 08/09 A2997 RMK A01 T00840085  RH  100%=      5-min Rain = 0
KCH1 221511Z 09005KT 09/09 A2997 RMK A01 T00850085  RH  100%=      5-min Rain = 0
KCH1 221512Z 10004KT 08/08 A2997 RMK A01 T00840084  RH  100%=      5-min Rain = 0
KCH1 221513Z 10004KT 08/08 A2997 RMK A01 T00840084  RH  100%=      5-min Rain = 0
KCH1 221514Z 10004KT 08/08 A2997 RMK A01 T00840084  RH  100%=      5-min Rain = 0
KCH1 221515Z 11005KT 08/08 A2997 RMK A01 T00840084  RH  100%=      5-min Rain = 0
KCH1 221516Z 10005KT 08/08 A2997 RMK A01 T00840084  RH  100%=      5-min Rain = 0
KCH1 221517Z 10005KT 08/08 A2997 RMK A01 T00840084  RH  100%=      5-min Rain = 0
KCH1 221518Z 10005KT 08/08 A2996 RMK A01 T00840084  RH  100%=      5-min Rain = 0
KCH1 221519Z 09004KT 08/08 A2996 RMK A01 T00840084  RH  100%=      5-min Rain = 0
KCH1 221520Z 10005KT 09/09 A2996 RMK A01 T00850085  RH  100%=      5-min Rain = 0
KCH1 221521Z 10004KT 09/09 A2996 RMK A01 T00850085  RH  100%=      5-min Rain = 0
KCH1 221522Z 10004KT 09/09 A2996 RMK A01 T00860086  RH  100%=      5-min Rain = 0
KCH1 221523Z 10005KT 09/09 A2996 RMK A01 T00860087  RH  100%=      5-min Rain = 0
KCH1 221524Z 12005KT 09/09 A2996 RMK A01 T00870087  RH  100%=      5-min Rain = 0
KCH1 221525Z 11004KT 09/09 A2996 RMK A01 T00860086  RH  100%=      5-min Rain = 0
KCH1 221526Z 11004KT 09/09 A2996 RMK A01 T00870087  RH  100%=      5-min Rain = 0
KCH1 221527Z 11003KT 09/09 A2996 RMK A01 T00870087  RH  100%=      5-min Rain = 0
KCH1 221528Z 09002KT 09/09 A2997 RMK A01 T00870087  RH  100%=      5-min Rain = 0
KCH1 221529Z 07002KT 09/09 A2997 RMK A01 T00870087  RH  100%=      5-min Rain = 0
KCH1 221530Z 07003KT 09/09 A2996 RMK A01 T00870087  RH  100%=      5-min Rain = 0
KCH1 221531Z 06004KT 09/09 A2996 RMK A01 T00870087  RH  100%=      5-min Rain = 0
KCH1 221532Z 07004KT 09/09 A2996 RMK A01 T00870087  RH  100%=      5-min Rain = 0
KCH1 221533Z 08004KT 09/09 A2996 RMK A01 T00870087  RH  100%=      5-min Rain = 0
KCH1 221534Z 10004KT 09/09 A2996 RMK A01 T00870087  RH  100%=      5-min Rain = 0
KCH1 221535Z 10004KT 09/09 A2996 RMK A01 T00870087  RH  100%=      5-min Rain = 0
KCH1 221536Z 09004KT 09/09 A2996 RMK A01 T00870087  RH  100%=      5-min Rain = 0
KCH1 221537Z 09005KT 09/09 A2996 RMK A01 T00870087  RH  100%=      5-min Rain = 0
KCH1 221538Z 08005KT 09/09 A2996 RMK A01 T00880088  RH  100%=      5-min Rain = 0
KCH1 221539Z 09005KT 09/09 A2996 RMK A01 T00880088  RH  100%=      5-min Rain = 0
KCH1 221540Z 08005KT 09/09 A2996 RMK A01 T00880088  RH  100%=      5-min Rain = 0
KCH1 221541Z 08005KT 09/09 A2996 RMK A01 T00890089  RH  100%=      5-min Rain = 0
KCH1 221542Z 09004KT 09/09 A2996 RMK A01 T00890089  RH  100%=      5-min Rain = 0
KCH1 221543Z 09004KT 09/09 A2996 RMK A01 T00900090  RH  100%=      5-min Rain = 0
KCH1 221544Z 09005KT 09/09 A2996 RMK A01 T00910091  RH  100%=      5-min Rain = 0
KCH1 221545Z 09004KT 09/09 A2996 RMK A01 T00910091  RH  100%=      5-min Rain = 0
KCH1 221546Z 10004KT 09/09 A2996 RMK A01 T00910091  RH  100%=      5-min Rain = 0
KCH1 221547Z 09004KT 09/09 A2996 RMK A01 T00900090  RH  100%=      5-min Rain = 0
KCH1 221548Z 09004KT 09/09 A2996 RMK A01 T00910091  RH  100%=      5-min Rain = 0
KCH1 221549Z 09004KT 09/09 A2996 RMK A01 T00910091  RH  100%=      5-min Rain = 0
KCH1 221550Z 09004KT 09/09 A2996 RMK A01 T00910091  RH  100%=      5-min Rain = 0
KCH1 221551Z 10005KT 09/09 A2996 RMK A01 T00910091  RH  100%=      5-min Rain = 0
KCH1 221552Z 09004KT 09/09 A2996 RMK A01 T00910091  RH  100%=      5-min Rain = 0
KCH1 221553Z 08004KT 09/09 A2996 RMK A01 T00920092  RH  100%=      5-min Rain = 0
KCH1 221554Z 07003KT 09/09 A2996 RMK A01 T00920092  RH  100%=      5-min Rain = 0
KCH1 221555Z 09003KT 09/09 A2996 RMK A01 T00930093  RH  100%=      5-min Rain = 0
KCH1 221556Z 08002KT 09/09 A2996 RMK A01 T00930093  RH  100%=      5-min Rain = 0
KCH1 221557Z 09004KT 09/09 A2996 RMK A01 T00930093  RH  100%=      5-min Rain = 0
KCH1 221558Z 07003KT 09/09 A2996 RMK A01 T00930093  RH  100%=      5-min Rain = 0
KCH1 221559Z 09004KT 09/09 A2996 RMK A01 T00930093  RH  100%=      5-min Rain = 0
KCH1 221600Z 08005KT 09/09 A2996 RMK A01 T00930093  RH  100%=      5-min Rain = 0
KCH1 221601Z 09005KT 09/09 A2996 RMK A01 T00930093  RH  100%=      5-min Rain = 0
KCH1 221602Z 09004KT 09/09 A2996 RMK A01 T00920092  RH  100%=      5-min Rain = 0
KCH1 221603Z 08005KT 09/09 A2996 RMK A01 T00930093  RH  100%=      5-min Rain = 0
KCH1 221604Z 08006KT 09/09 A2996 RMK A01 T00930093  RH  100%=      5-min Rain = 0
KCH1 221605Z 08005KT 09/09 A2996 RMK A01 T00930093  RH  100%=      5-min Rain = 0
KCH1 221606Z 08005KT 09/09 A2996 RMK A01 T00930093  RH  100%=      5-min Rain = 0
KCH1 221607Z 08005KT 09/09 A2996 RMK A01 T00930093  RH  100%=      5-min Rain = 0
KCH1 221608Z 08005KT 09/09 A2996 RMK A01 T00930093  RH  100%=      5-min Rain = 0
KCH1 221609Z 08004KT 09/09 A2996 RMK A01 T00930093  RH  100%=      5-min Rain = 0
KCH1 221610Z 08004KT 09/09 A2996 RMK A01 T00930093  RH  100%=      5-min Rain = 0
KCH1 221611Z 08004KT 09/09 A2996 RMK A01 T00930093  RH  100%=      5-min Rain = 0
KCH1 221612Z 08005KT 09/09 A2996 RMK A01 T00930094  RH  100%=      5-min Rain = 0
KCH1 221613Z 08005KT 09/09 A2996 RMK A01 T00940094  RH  100%=      5-min Rain = 0
KCH1 221614Z 08004KT 09/09 A2996 RMK A01 T00940094  RH  100%=      5-min Rain = 0
KCH1 221615Z 08005KT 09/09 A2996 RMK A01 T00930094  RH  100%=      5-min Rain = 0
KCH1 221616Z 08005KT 09/09 A2996 RMK A01 T00940094  RH  100%=      5-min Rain = 0
KCH1 221617Z 09005KT 09/09 A2996 RMK A01 T00930094  RH  100%=      5-min Rain = 0
KCH1 221618Z 08004KT 09/09 A2996 RMK A01 T00940094  RH  100%=      5-min Rain = 0
KCH1 221619Z 09004KT 09/10 A2996 RMK A01 T00940095  RH  100%=      5-min Rain = 0
KCH1 221620Z 10003KT 10/10 A2996 RMK A01 T00950095  RH  100%=      5-min Rain = 0
KCH1 221621Z 10002KT 10/10 A2996 RMK A01 T00950095  RH  100%=      5-min Rain = 0
KCH1 221622Z 08004KT 10/10 A2996 RMK A01 T00960096  RH  100%=      5-min Rain = 0
KCH1 221623Z 08005KT 10/10 A2996 RMK A01 T00970097  RH  100%=      5-min Rain = 0
KCH1 221624Z 09004KT 10/10 A2996 RMK A01 T00960096  RH  100%=      5-min Rain = 0
KCH1 221625Z 09003KT 10/10 A2996 RMK A01 T00960096  RH  100%=      5-min Rain = 0
KCH1 221626Z 09004KT 10/10 A2996 RMK A01 T00970097  RH  100%=      5-min Rain = 0
KCH1 221627Z 09005KT 10/10 A2996 RMK A01 T00970097  RH  100%=      5-min Rain = 0
KCH1 221628Z 08004KT 10/10 A2996 RMK A01 T00960097  RH  100%=      5-min Rain = 0
KCH1 221629Z 08003KT 10/10 A2996 RMK A01 T00960096  RH  100%=      5-min Rain = 0
KCH1 221630Z 08004KT 10/10 A2996 RMK A01 T00970097  RH  100%=      5-min Rain = 0
KCH1 221631Z 08005KT 10/10 A2996 RMK A01 T00970098  RH  100%=      5-min Rain = 0
KCH1 221632Z 08005KT 10/10 A2996 RMK A01 T00960096  RH  100%=      5-min Rain = 0
KCH1 221633Z 08005KT 10/10 A2996 RMK A01 T00960096  RH  100%=      5-min Rain = 0
KCH1 221634Z 09005KT 10/10 A2996 RMK A01 T00960096  RH  100%=      5-min Rain = 0
KCH1 221635Z 09004KT 10/10 A2996 RMK A01 T00960096  RH  100%=      5-min Rain = 0
KCH1 221636Z 09004KT 10/10 A2996 RMK A01 T00960096  RH  100%=      5-min Rain = 0
KCH1 221637Z 09003KT 10/10 A2996 RMK A01 T00960096  RH  100%=      5-min Rain = 0
KCH1 221638Z 08003KT 10/10 A2996 RMK A01 T00960096  RH  100%=      5-min Rain = 0
KCH1 221639Z 09004KT 10/10 A2996 RMK A01 T00980098  RH  100%=      5-min Rain = 0
KCH1 221640Z 08004KT 10/10 A2996 RMK A01 T00980098  RH  100%=      5-min Rain = 0
KCH1 221641Z 10004KT 10/10 A2996 RMK A01 T00970098  RH  100%=      5-min Rain = 0
KCH1 221642Z 09003KT 10/10 A2995 RMK A01 T00980098  RH  100%=      5-min Rain = 0
KCH1 221643Z 09003KT 10/10 A2995 RMK A01 T00980098  RH  100%=      5-min Rain = 0
KCH1 221644Z 09002KT 10/10 A2995 RMK A01 T00980098  RH  100%=      5-min Rain = 0
KCH1 221645Z 11002KT 10/10 A2995 RMK A01 T00980098  RH  100%=      5-min Rain = 0
KCH1 221646Z 08002KT 10/10 A2995 RMK A01 T00980098  RH  100%=      5-min Rain = 0
KCH1 221647Z 09003KT 10/10 A2995 RMK A01 T00990099  RH  100%=      5-min Rain = 0
KCH1 221648Z 08003KT 10/10 A2995 RMK A01 T00980098  RH  100%=      5-min Rain = 0
KCH1 221649Z 09003KT 10/10 A2995 RMK A01 T00980098  RH  100%=      5-min Rain = 0
KCH1 221650Z 10003KT 10/10 A2995 RMK A01 T00990099  RH  100%=      5-min Rain = 0
KCH1 221651Z 09003KT 10/10 A2995 RMK A01 T00980099  RH  100%=      5-min Rain = 0
KCH1 221652Z 09002KT 10/10 A2995 RMK A01 T00990099  RH  100%=      5-min Rain = 0
KCH1 221653Z 10003KT 10/10 A2995 RMK A01 T00980098  RH  100%=      5-min Rain = 0
KCH1 221654Z 11003KT 10/10 A2995 RMK A01 T00990099  RH  100%=      5-min Rain = 0
KCH1 221655Z 13003KT 10/10 A2995 RMK A01 T00990099  RH  100%=      5-min Rain = 0
KCH1 221656Z 13003KT 10/10 A2995 RMK A01 T01000100  RH  100%=      5-min Rain = 0
KCH1 221657Z 13003KT 10/10 A2995 RMK A01 T00990099  RH  100%=      5-min Rain = 0
KCH1 221658Z 12002KT 10/10 A2995 RMK A01 T00990099  RH  100%=      5-min Rain = 0
KCH1 221659Z 11003KT 10/10 A2995 RMK A01 T00990099  RH  100%=      5-min Rain = 0
KCH1 221700Z 12001KT 10/10 A2995 RMK A01 T00990099  RH  100%=      5-min Rain = 0
KCH1 221701Z 13002KT 10/10 A2995 RMK A01 T01000100  RH  100%=      5-min Rain = 0
KCH1 221702Z 15002KT 10/10 A2995 RMK A01 T01000100  RH  100%=      5-min Rain = 0
KCH1 221703Z 13003KT 10/10 A2995 RMK A01 T01000101  RH  100%=      5-min Rain = 0
KCH1 221704Z 12003KT 10/10 A2995 RMK A01 T01010101  RH  100%=      5-min Rain = 0
KCH1 221705Z 12004KT 10/10 A2995 RMK A01 T01010101  RH  100%=      5-min Rain = 0
KCH1 221706Z 11002KT 10/10 A2995 RMK A01 T01000100  RH  100%=      5-min Rain = 0
KCH1 221707Z 11002KT 10/10 A2995 RMK A01 T01000100  RH  100%=      5-min Rain = 0
KCH1 221708Z 12002KT 10/10 A2995 RMK A01 T01000101  RH  100%=      5-min Rain = 0
KCH1 221709Z 11003KT 10/10 A2995 RMK A01 T01000100  RH  100%=      5-min Rain = 0
KCH1 221710Z 15002KT 10/10 A2995 RMK A01 T01010101  RH  100%=      5-min Rain = 0
KCH1 221711Z 14003KT 10/10 A2995 RMK A01 T01010101  RH  100%=      5-min Rain = 0
KCH1 221712Z 15003KT 10/10 A2995 RMK A01 T01010101  RH  100%=      5-min Rain = 0
KCH1 221713Z 15003KT 10/10 A2995 RMK A01 T01020102  RH  100%=      5-min Rain = 0
KCH1 221714Z 11004KT 10/10 A2995 RMK A01 T01030103  RH  100%=      5-min Rain = 0
KCH1 221715Z 12004KT 10/10 A2995 RMK A01 T01030103  RH  100%=      5-min Rain = 0
KCH1 221716Z 12004KT 10/10 A2995 RMK A01 T01030103  RH  100%=      5-min Rain = 0
KCH1 221717Z 13005KT 10/10 A2995 RMK A01 T01020102  RH  100%=      5-min Rain = 0
KCH1 221718Z 12004KT 10/10 A2995 RMK A01 T01020102  RH  100%=      5-min Rain = 0
KCH1 221719Z 13004KT 10/10 A2995 RMK A01 T01030103  RH  100%=      5-min Rain = 0
KCH1 221720Z 13005KT 10/10 A2995 RMK A01 T01030103  RH  100%=      5-min Rain = 0
KCH1 221721Z 12004KT 10/10 A2995 RMK A01 T01020102  RH  100%=      5-min Rain = 0
KCH1 221722Z 11003KT 10/10 A2995 RMK A01 T01020102  RH  100%=      5-min Rain = 0
KCH1 221723Z 11003KT 10/10 A2995 RMK A01 T01020102  RH  100%=      5-min Rain = 0
KCH1 221724Z 13004KT 10/10 A2995 RMK A01 T01030103  RH  100%=      5-min Rain = 0
KCH1 221725Z 15004KT 10/10 A2995 RMK A01 T01030103  RH  100%=      5-min Rain = 0
KCH1 221726Z 15004KT 10/10 A2995 RMK A01 T01030103  RH  100%=      5-min Rain = 0
KCH1 221727Z 13004KT 10/10 A2995 RMK A01 T01030103  RH  100%=      5-min Rain = 0
KCH1 221728Z 13005KT 10/10 A2995 RMK A01 T01040104  RH  100%=      5-min Rain = 0
KCH1 221729Z 13005KT 10/10 A2995 RMK A01 T01040104  RH  100%=      5-min Rain = 0
KCH1 221730Z 14005KT 10/10 A2995 RMK A01 T01030103  RH  100%=      5-min Rain = 0
KCH1 221731Z 15005KT 10/10 A2995 RMK A01 T01040104  RH  100%=      5-min Rain = 0
KCH1 221732Z 16005KT 10/10 A2995 RMK A01 T01040104  RH  100%=      5-min Rain = 0
KCH1 221733Z 15004KT 10/10 A2995 RMK A01 T01040104  RH  100%=      5-min Rain = 0
KCH1 221734Z 13003KT 10/10 A2995 RMK A01 T01040104  RH  100%=      5-min Rain = 0
KCH1 221735Z 14005KT 11/11 A2995 RMK A01 T01050105  RH  100%=      5-min Rain = 0
KCH1 221736Z 14005KT 11/11 A2994 RMK A01 T01050105  RH  100%=      5-min Rain = 0
KCH1 221737Z 14005KT 11/11 A2994 RMK A01 T01050105  RH  100%=      5-min Rain = 0
KCH1 221738Z 13006KT 11/11 A2994 RMK A01 T01050105  RH  100%=      5-min Rain = 0
KCH1 221739Z 13005KT 11/11 A2994 RMK A01 T01060106  RH  100%=      5-min Rain = 0
KCH1 221740Z 13005KT 11/11 A2994 RMK A01 T01050105  RH  100%=      5-min Rain = 0
KCH1 221741Z 13005KT 11/11 A2994 RMK A01 T01060106  RH  100%=      5-min Rain = 0
KCH1 221742Z 13006KT 11/11 A2994 RMK A01 T01070107  RH  100%=      5-min Rain = 0
KCH1 221743Z 13007KT 11/11 A2994 RMK A01 T01070106  RH  100%=      5-min Rain = 0
KCH1 221744Z 13007KT 11/11 A2994 RMK A01 T01060105  RH  099%=      5-min Rain = 0
KCH1 221745Z 13006KT 11/11 A2994 RMK A01 T01060105  RH  099%=      5-min Rain = 0
KCH1 221746Z 13006KT 11/11 A2994 RMK A01 T01070105  RH  099%=      5-min Rain = 0
KCH1 221747Z 12005KT 11/11 A2994 RMK A01 T01070106  RH  099%=      5-min Rain = 0
KCH1 221748Z 14005KT 11/11 A2994 RMK A01 T01080107  RH  099%=      5-min Rain = 0
KCH1 221749Z 15006KT 11/11 A2994 RMK A01 T01090108  RH  099%=      5-min Rain = 0
KCH1 221750Z 15006KT 11/11 A2994 RMK A01 T01100107  RH  098%=      5-min Rain = 0
KCH1 221751Z 15006KT 11/11 A2994 RMK A01 T01090105  RH  098%=      5-min Rain = 0
KCH1 221752Z 15005KT 11/11 A2994 RMK A01 T01090105  RH  098%=      5-min Rain = 0
KCH1 221753Z 13005KT 11/11 A2994 RMK A01 T01090106  RH  098%=      5-min Rain = 0
KCH1 221754Z 14005KT 11/11 A2994 RMK A01 T01110108  RH  098%=      5-min Rain = 0
KCH1 221755Z 15005KT 11/11 A2994 RMK A01 T01110108  RH  098%=      5-min Rain = 0
KCH1 221756Z 14004KT 11/11 A2994 RMK A01 T01120107  RH  097%=      5-min Rain = 0
KCH1 221757Z 14005KT 11/11 A2994 RMK A01 T01120106  RH  096%=      5-min Rain = 0
KCH1 221758Z 16006KT 11/11 A2994 RMK A01 T01110106  RH  096%=      5-min Rain = 0
KCH1 221759Z 14005KT 11/11 A2994 RMK A01 T01120106  RH  096%=      5-min Rain = 0
KCH1 221800Z 14007KT 11/11 A2994 RMK A01 T01120106  RH  096%=      5-min Rain = 0
KCH1 221801Z 14007KT 11/10 A2994 RMK A01 T01110104  RH  095%=      5-min Rain = 0
KCH1 221802Z 15006KT 11/10 A2993 RMK A01 T01100103  RH  095%=      5-min Rain = 0
KCH1 221803Z 15006KT 11/10 A2993 RMK A01 T01100104  RH  096%=      5-min Rain = 0
KCH1 221804Z 14007KT 11/11 A2993 RMK A01 T01110105  RH  096%=      5-min Rain = 0
KCH1 221805Z 14006KT 11/10 A2993 RMK A01 T01110104  RH  096%=      5-min Rain = 0
KCH1 221806Z 14005KT 11/10 A2993 RMK A01 T01110104  RH  096%=      5-min Rain = 0
KCH1 221807Z 14006KT 11/11 A2993 RMK A01 T01110105  RH  096%=      5-min Rain = 0
KCH1 221808Z 14007KT 11/10 A2993 RMK A01 T01110104  RH  095%=      5-min Rain = 0
KCH1 221809Z 15006KT 11/10 A2993 RMK A01 T01110104  RH  095%=      5-min Rain = 0
KCH1 221810Z 15005KT 11/10 A2993 RMK A01 T01110104  RH  095%=      5-min Rain = 0
KCH1 221811Z 14006KT 11/10 A2993 RMK A01 T01120104  RH  095%=      5-min Rain = 0
KCH1 221812Z 14005KT 11/10 A2993 RMK A01 T01120104  RH  095%=      5-min Rain = 0
KCH1 221813Z 14006KT 11/10 A2993 RMK A01 T01110104  RH  095%=      5-min Rain = 0
KCH1 221814Z 14007KT 11/10 A2993 RMK A01 T01120104  RH  095%=      5-min Rain = 0
KCH1 221815Z 15008KT 11/10 A2993 RMK A01 T01110103  RH  095%=      5-min Rain = 0
KCH1 221816Z 15007KT 11/10 A2993 RMK A01 T01110103  RH  094%=      5-min Rain = 0
KCH1 221817Z 15006KT 11/10 A2993 RMK A01 T01110103  RH  095%=      5-min Rain = 0
KCH1 221818Z 14005KT 11/10 A2993 RMK A01 T01110103  RH  095%=      5-min Rain = 0
KCH1 221819Z 16005KT 11/10 A2993 RMK A01 T01110103  RH  095%=      5-min Rain = 0
KCH1 221820Z 15005KT 11/10 A2993 RMK A01 T01110103  RH  095%=      5-min Rain = 0
KCH1 221821Z 16004KT 11/10 A2993 RMK A01 T01110103  RH  095%=      5-min Rain = 0
KCH1 221822Z 17004KT 11/10 A2993 RMK A01 T01100102  RH  095%=      5-min Rain = 0
KCH1 221823Z 15005KT 11/10 A2993 RMK A01 T01100103  RH  095%=      5-min Rain = 0
KCH1 221824Z 15005KT 11/10 A2993 RMK A01 T01100103  RH  095%=      5-min Rain = 0
KCH1 221825Z 14005KT 11/10 A2993 RMK A01 T01100103  RH  095%=      5-min Rain = 0
KCH1 221826Z 15005KT 11/10 A2993 RMK A01 T01110104  RH  096%=      5-min Rain = 0
KCH1 221827Z 15007KT 11/10 A2993 RMK A01 T01110104  RH  095%=      5-min Rain = 0
KCH1 221828Z 14006KT 11/10 A2993 RMK A01 T01110103  RH  095%=      5-min Rain = 0
KCH1 221829Z 12008KT 11/10 A2993 RMK A01 T01110103  RH  095%=      5-min Rain = 0
KCH1 221830Z 14006KT 11/10 A2993 RMK A01 T01110103  RH  095%=      5-min Rain = 0
KCH1 221831Z 15005KT 11/10 A2993 RMK A01 T01110104  RH  095%=      5-min Rain = 0
KCH1 221832Z 16006KT 11/10 A2993 RMK A01 T01110104  RH  095%=      5-min Rain = 0
KCH1 221833Z 15005KT 11/10 A2992 RMK A01 T01110103  RH  095%=      5-min Rain = 0
KCH1 221834Z 14005KT 11/10 A2993 RMK A01 T01100103  RH  095%=      5-min Rain = 0
KCH1 221835Z 12005KT 11/10 A2993 RMK A01 T01100103  RH  096%=      5-min Rain = 0
KCH1 221836Z 14005KT 11/10 A2993 RMK A01 T01100103  RH  095%=      5-min Rain = 0
KCH1 221837Z 13006KT 11/10 A2992 RMK A01 T01100103  RH  096%=      5-min Rain = 0
KCH1 221838Z 12006KT 11/10 A2992 RMK A01 T01100104  RH  096%=      5-min Rain = 0
KCH1 221839Z 11005KT 11/10 A2992 RMK A01 T01100104  RH  096%=      5-min Rain = 0
KCH1 221840Z 12005KT 11/10 A2992 RMK A01 T01100104  RH  097%=      5-min Rain = 0
KCH1 221841Z 12006KT 11/10 A2992 RMK A01 T01100104  RH  096%=      5-min Rain = 0
KCH1 221842Z 11006KT 11/10 A2992 RMK A01 T01100104  RH  096%=      5-min Rain = 0
KCH1 221843Z 13005KT 11/10 A2992 RMK A01 T01100104  RH  097%=      5-min Rain = 0
KCH1 221844Z 11006KT 11/11 A2992 RMK A01 T01100105  RH  097%=      5-min Rain = 0
KCH1 221845Z 12006KT 11/11 A2992 RMK A01 T01100105  RH  097%=      5-min Rain = 0
KCH1 221846Z 11006KT 11/11 A2992 RMK A01 T01100105  RH  097%=      5-min Rain = 0
KCH1 221847Z 11006KT 11/11 A2992 RMK A01 T01100105  RH  097%=      5-min Rain = 0
KCH1 221848Z 11006KT 11/11 A2992 RMK A01 T01100105  RH  097%=      5-min Rain = 0
KCH1 221849Z 12006KT 11/11 A2992 RMK A01 T01100105  RH  097%=      5-min Rain = 0
KCH1 221850Z 13005KT 11/11 A2992 RMK A01 T01100105  RH  097%=      5-min Rain = 0
KCH1 221851Z 14005KT 11/11 A2992 RMK A01 T01100106  RH  098%=      5-min Rain = 0
KCH1 221852Z 13005KT 11/11 A2992 RMK A01 T01110108  RH  098%=      5-min Rain = 0
KCH1 221853Z 13005KT 11/11 A2992 RMK A01 T01120108  RH  098%=      5-min Rain = 0
KCH1 221854Z 12006KT 11/11 A2992 RMK A01 T01120108  RH  097%=      5-min Rain = 0
KCH1 221855Z 12007KT 11/11 A2991 RMK A01 T01120107  RH  097%=      5-min Rain = 0
KCH1 221856Z 12007KT 11/11 A2991 RMK A01 T01110107  RH  097%=      5-min Rain = 0
KCH1 221857Z 13006KT 11/11 A2991 RMK A01 T01110106  RH  097%=      5-min Rain = 0
KCH1 221858Z 13005KT 11/11 A2991 RMK A01 T01110106  RH  097%=      5-min Rain = 0
KCH1 221859Z 14006KT 11/11 A2991 RMK A01 T01100105  RH  097%=      5-min Rain = 0
KCH1 221900Z 13005KT 11/11 A2992 RMK A01 T01100106  RH  097%=      5-min Rain = 0
KCH1 221901Z 13005KT 11/11 A2992 RMK A01 T01100106  RH  098%=      5-min Rain = 0
KCH1 221902Z 14006KT 11/11 A2992 RMK A01 T01110107  RH  098%=      5-min Rain = 0
KCH1 221903Z 16005KT 11/11 A2992 RMK A01 T01110107  RH  098%=      5-min Rain = 0
KCH1 221904Z 15004KT 11/11 A2992 RMK A01 T01110107  RH  097%=      5-min Rain = 0
KCH1 221905Z 14006KT 11/11 A2992 RMK A01 T01110108  RH  098%=      5-min Rain = 0
KCH1 221906Z 15006KT 11/11 A2992 RMK A01 T01120108  RH  098%=      5-min Rain = 0
KCH1 221907Z 14006KT 11/11 A2992 RMK A01 T01120109  RH  098%=      5-min Rain = 0
KCH1 221908Z 14006KT 11/11 A2992 RMK A01 T01120108  RH  097%=      5-min Rain = 0
KCH1 221909Z 13006KT 11/11 A2992 RMK A01 T01120107  RH  097%=      5-min Rain = 0
KCH1 221910Z 14005KT 11/11 A2991 RMK A01 T01110107  RH  097%=      5-min Rain = 0
KCH1 221911Z 16005KT 11/11 A2991 RMK A01 T01110107  RH  097%=      5-min Rain = 0
KCH1 221912Z 16005KT 11/11 A2991 RMK A01 T01120108  RH  097%=      5-min Rain = 0
KCH1 221913Z 15005KT 11/11 A2991 RMK A01 T01120108  RH  097%=      5-min Rain = 0
KCH1 221914Z 14006KT 11/11 A2991 RMK A01 T01130108  RH  097%=      5-min Rain = 0
KCH1 221915Z 15006KT 11/11 A2991 RMK A01 T01120107  RH  097%=      5-min Rain = 0
KCH1 221916Z 14006KT 11/11 A2991 RMK A01 T01120107  RH  097%=      5-min Rain = 0
KCH1 221917Z 14005KT 11/11 A2991 RMK A01 T01120108  RH  097%=      5-min Rain = 0
KCH1 221918Z 14005KT 11/11 A2991 RMK A01 T01130109  RH  097%=      5-min Rain = 0
KCH1 221919Z 12005KT 11/11 A2991 RMK A01 T01130108  RH  097%=      5-min Rain = 0
KCH1 221920Z 12006KT 11/11 A2991 RMK A01 T01130108  RH  097%=      5-min Rain = 0
KCH1 221921Z 12006KT 11/11 A2991 RMK A01 T01130108  RH  097%=      5-min Rain = 0
KCH1 221922Z 14004KT 11/11 A2991 RMK A01 T01130109  RH  097%=      5-min Rain = 0
KCH1 221923Z 14003KT 11/11 A299 RMK A01 T01130109  RH  097%=      5-min Rain = 0
KCH1 221924Z 14004KT 11/11 A299 RMK A01 T01140110  RH  097%=      5-min Rain = 0
KCH1 221925Z 13004KT 11/11 A299 RMK A01 T01140110  RH  097%=      5-min Rain = 0
KCH1 221926Z 14004KT 12/11 A299 RMK A01 T01150111  RH  098%=      5-min Rain = 0
KCH1 221927Z 15004KT 12/11 A299 RMK A01 T01150111  RH  097%=      5-min Rain = 0
KCH1 221928Z 16005KT 12/11 A299 RMK A01 T01150110  RH  097%=      5-min Rain = 0
KCH1 221929Z 17006KT 11/11 A299 RMK A01 T01140110  RH  097%=      5-min Rain = 0
KCH1 221930Z 17005KT 11/11 A299 RMK A01 T01140108  RH  097%=      5-min Rain = 0
KCH1 221931Z 18005KT 11/11 A299 RMK A01 T01140108  RH  096%=      5-min Rain = 0
KCH1 221932Z 17004KT 11/11 A299 RMK A01 T01130108  RH  097%=      5-min Rain = 0
KCH1 221933Z 17005KT 11/11 A299 RMK A01 T01140109  RH  097%=      5-min Rain = 0
KCH1 221934Z 16004KT 11/11 A299 RMK A01 T01130108  RH  096%=      5-min Rain = 0
KCH1 221935Z 16006KT 11/11 A299 RMK A01 T01140109  RH  097%=      5-min Rain = 0
KCH1 221936Z 15005KT 11/11 A299 RMK A01 T01140109  RH  096%=      5-min Rain = 0
KCH1 221937Z 16005KT 12/11 A299 RMK A01 T01150110  RH  097%=      5-min Rain = 0
KCH1 221938Z 16006KT 12/11 A299 RMK A01 T01160110  RH  096%=      5-min Rain = 0
KCH1 221939Z 15005KT 12/11 A299 RMK A01 T01160109  RH  096%=      5-min Rain = 0
KCH1 221940Z 16005KT 12/11 A2989 RMK A01 T01160109  RH  095%=      5-min Rain = 0
KCH1 221941Z 15005KT 12/11 A2989 RMK A01 T01170109  RH  095%=      5-min Rain = 0
KCH1 221942Z 15005KT 12/11 A2989 RMK A01 T01170110  RH  095%=      5-min Rain = 0
KCH1 221943Z 16006KT 12/11 A2989 RMK A01 T01180110  RH  095%=      5-min Rain = 0
KCH1 221944Z 15005KT 12/11 A2989 RMK A01 T01190111  RH  095%=      5-min Rain = 0
KCH1 221945Z 14006KT 12/11 A2989 RMK A01 T01200112  RH  094%=      5-min Rain = 0
KCH1 221946Z 13004KT 12/11 A2989 RMK A01 T01210112  RH  094%=      5-min Rain = 0
KCH1 221947Z 14007KT 12/11 A2989 RMK A01 T01230112  RH  093%=      5-min Rain = 0
KCH1 221948Z 15006KT 12/11 A2989 RMK A01 T01220109  RH  092%=      5-min Rain = 0
KCH1 221949Z 15005KT 12/11 A2989 RMK A01 T01220109  RH  092%=      5-min Rain = 0
KCH1 221950Z 14006KT 12/11 A2988 RMK A01 T01220111  RH  093%=      5-min Rain = 0
KCH1 221951Z 14006KT 12/11 A2988 RMK A01 T01220110  RH  092%=      5-min Rain = 0
KCH1 221952Z 14006KT 12/11 A2989 RMK A01 T01230110  RH  092%=      5-min Rain = 0
KCH1 221953Z 15005KT 12/11 A2989 RMK A01 T01230110  RH  092%=      5-min Rain = 0
KCH1 221954Z 17006KT 12/11 A2988 RMK A01 T01240110  RH  092%=      5-min Rain = 0
KCH1 221955Z 14005KT 12/11 A2989 RMK A01 T01240110  RH  091%=      5-min Rain = 0
KCH1 221956Z 15006KT 12/11 A2989 RMK A01 T01240110  RH  091%=      5-min Rain = 0
KCH1 221957Z 12006KT 12/11 A2988 RMK A01 T01240110  RH  092%=      5-min Rain = 0
KCH1 221958Z 14006KT 12/11 A2988 RMK A01 T01230110  RH  092%=      5-min Rain = 0
KCH1 221959Z 14006KT 12/11 A2988 RMK A01 T01220110  RH  092%=      5-min Rain = 0
KCH1 222000Z 14005KT 12/11 A2988 RMK A01 T01220109  RH  092%=      5-min Rain = 0
KCH1 222001Z 15006KT 12/11 A2988 RMK A01 T01220110  RH  093%=      5-min Rain = 0
KCH1 222002Z 13008KT 12/11 A2988 RMK A01 T01230111  RH  093%=      5-min Rain = 0
KCH1 222003Z 13007KT 12/11 A2988 RMK A01 T01230110  RH  092%=      5-min Rain = 0
KCH1 222004Z 15007KT 12/11 A2988 RMK A01 T01230111  RH  092%=      5-min Rain = 0
KCH1 222005Z 15006KT 12/11 A2988 RMK A01 T01240111  RH  092%=      5-min Rain = 0
KCH1 222006Z 14005KT 12/11 A2988 RMK A01 T01240110  RH  091%=      5-min Rain = 0
KCH1 222007Z 13006KT 12/11 A2988 RMK A01 T01230110  RH  092%=      5-min Rain = 0
KCH1 222008Z 14006KT 12/11 A2987 RMK A01 T01220110  RH  092%=      5-min Rain = 0
KCH1 222009Z 13006KT 12/11 A2987 RMK A01 T01230112  RH  093%=      5-min Rain = 0
KCH1 222010Z 14005KT 13/11 A2987 RMK A01 T01250113  RH  092%=      5-min Rain = 0
KCH1 222011Z 15004KT 13/11 A2988 RMK A01 T01270113  RH  091%=      5-min Rain = 0
KCH1 222012Z 14005KT 13/11 A2987 RMK A01 T01280113  RH  090%=      5-min Rain = 0
KCH1 222013Z 14006KT 13/11 A2987 RMK A01 T01290113  RH  090%=      5-min Rain = 0
KCH1 222014Z 15006KT 13/11 A2987 RMK A01 T01290113  RH  090%=      5-min Rain = 0
KCH1 222015Z 14005KT 13/11 A2987 RMK A01 T01300113  RH  090%=      5-min Rain = 0
KCH1 222016Z 14005KT 13/11 A2987 RMK A01 T01300113  RH  089%=      5-min Rain = 0
KCH1 222017Z 15008KT 13/11 A2987 RMK A01 T01320113  RH  089%=      5-min Rain = 0
KCH1 222018Z 15007KT 13/11 A2987 RMK A01 T01330112  RH  087%=      5-min Rain = 0
KCH1 222019Z 16007KT 13/11 A2987 RMK A01 T01330112  RH  087%=      5-min Rain = 0
KCH1 222020Z 15007KT 13/11 A2987 RMK A01 T01330112  RH  087%=      5-min Rain = 0
KCH1 222021Z 15006KT 13/11 A2987 RMK A01 T01330112  RH  087%=      5-min Rain = 0
KCH1 222022Z 16007KT 13/11 A2987 RMK A01 T01330111  RH  087%=      5-min Rain = 0
KCH1 222023Z 16007KT 13/11 A2987 RMK A01 T01310110  RH  087%=      5-min Rain = 0
KCH1 222024Z 16007KT 13/11 A2987 RMK A01 T01310111  RH  088%=      5-min Rain = 0
KCH1 222025Z 15007KT 13/11 A2987 RMK A01 T01310111  RH  087%=      5-min Rain = 0
KCH1 222026Z 16006KT 13/11 A2987 RMK A01 T01320111  RH  087%=      5-min Rain = 0
KCH1 222027Z 15008KT 13/11 A2987 RMK A01 T01320112  RH  087%=      5-min Rain = 0
KCH1 222028Z 15008KT 13/11 A2987 RMK A01 T01320111  RH  087%=      5-min Rain = 0
KCH1 222029Z 16008KT 13/11 A2987 RMK A01 T01320112  RH  087%=      5-min Rain = 0
KCH1 222030Z 15007KT 13/11 A2986 RMK A01 T01320110  RH  087%=      5-min Rain = 0
KCH1 222031Z 15005KT 13/11 A2986 RMK A01 T01320111  RH  087%=      5-min Rain = 0
KCH1 222032Z 16005KT 13/11 A2986 RMK A01 T01320113  RH  088%=      5-min Rain = 0
KCH1 222033Z 16006KT 13/11 A2986 RMK A01 T01340112  RH  086%=      5-min Rain = 0
KCH1 222034Z 15006KT 13/11 A2986 RMK A01 T01340112  RH  087%=      5-min Rain = 0
KCH1 222035Z 14007KT 14/11 A2986 RMK A01 T01350113  RH  086%=      5-min Rain = 0
KCH1 222036Z 16005KT 13/11 A2986 RMK A01 T01340111  RH  086%=      5-min Rain = 0
KCH1 222037Z 14007KT 14/11 A2986 RMK A01 T01350114  RH  087%=      5-min Rain = 0
KCH1 222038Z 15008KT 14/11 A2986 RMK A01 T01370112  RH  085%=      5-min Rain = 0
KCH1 222039Z 15007KT 14/11 A2986 RMK A01 T01370113  RH  085%=      5-min Rain = 0
KCH1 222040Z 14008KT 14/11 A2986 RMK A01 T01380112  RH  085%=      5-min Rain = 0
KCH1 222041Z 13006KT 14/11 A2986 RMK A01 T01380112  RH  084%=      5-min Rain = 0
KCH1 222042Z 15007KT 14/11 A2986 RMK A01 T01380113  RH  085%=      5-min Rain = 0
KCH1 222043Z 16008KT 14/11 A2986 RMK A01 T01390112  RH  084%=      5-min Rain = 0
KCH1 222044Z 14008KT 14/11 A2986 RMK A01 T01370110  RH  084%=      5-min Rain = 0
KCH1 222045Z 15007KT 14/11 A2986 RMK A01 T01360111  RH  085%=      5-min Rain = 0
KCH1 222046Z 15007KT 14/11 A2986 RMK A01 T01360111  RH  085%=      5-min Rain = 0
KCH1 222047Z 13007KT 14/11 A2985 RMK A01 T01360111  RH  085%=      5-min Rain = 0
KCH1 222048Z 13008KT 14/11 A2985 RMK A01 T01360112  RH  085%=      5-min Rain = 0
KCH1 222049Z 13008KT 14/11 A2985 RMK A01 T01370111  RH  084%=      5-min Rain = 0
KCH1 222050Z 13007KT 14/11 A2985 RMK A01 T01360110  RH  084%=      5-min Rain = 0
KCH1 222051Z 12007KT 13/11 A2985 RMK A01 T01340110  RH  085%=      5-min Rain = 0
KCH1 222052Z 14009KT 13/11 A2985 RMK A01 T01340110  RH  086%=      5-min Rain = 0
KCH1 222053Z 14007KT 13/11 A2985 RMK A01 T01330110  RH  086%=      5-min Rain = 0
KCH1 222054Z 14005KT 13/11 A2985 RMK A01 T01340111  RH  086%=      5-min Rain = 0
KCH1 222055Z 14007KT 14/11 A2985 RMK A01 T01350112  RH  086%=      5-min Rain = 0
KCH1 222056Z 14010KT 14/11 A2985 RMK A01 T01360112  RH  086%=      5-min Rain = 0
KCH1 222057Z 13007KT 14/11 A2985 RMK A01 T01350111  RH  086%=      5-min Rain = 0
KCH1 222058Z 13007KT 14/11 A2985 RMK A01 T01360111  RH  085%=      5-min Rain = 0
KCH1 222059Z 14008KT 14/11 A2985 RMK A01 T01360111  RH  085%=      5-min Rain = 0
KCH1 222100Z 13005KT 14/11 A2985 RMK A01 T01360111  RH  085%=      5-min Rain = 0
KCH1 222101Z 13006KT 14/11 A2985 RMK A01 T01350110  RH  085%=      5-min Rain = 0
KCH1 222102Z 12005KT 14/11 A2985 RMK A01 T01350111  RH  085%=      5-min Rain = 0
KCH1 222103Z 13006KT 14/11 A2985 RMK A01 T01350111  RH  085%=      5-min Rain = 0
KCH1 222104Z 13007KT 14/11 A2985 RMK A01 T01360112  RH  085%=      5-min Rain = 0
KCH1 222105Z 11008KT 14/11 A2985 RMK A01 T01380113  RH  085%=      5-min Rain = 0
KCH1 222106Z 14007KT 14/11 A2985 RMK A01 T01410113  RH  083%=      5-min Rain = 0
KCH1 222107Z 13005KT 14/11 A2985 RMK A01 T01420112  RH  082%=      5-min Rain = 0
KCH1 222108Z 14006KT 14/12 A2985 RMK A01 T01440115  RH  082%=      5-min Rain = 0
KCH1 222109Z 13005KT 15/12 A2985 RMK A01 T01450115  RH  082%=      5-min Rain = 0
KCH1 222110Z 12004KT 15/12 A2985 RMK A01 T01460116  RH  082%=      5-min Rain = 0
KCH1 222111Z 13003KT 15/12 A2985 RMK A01 T01510118  RH  081%=      5-min Rain = 0
KCH1 222112Z 10005KT 15/12 A2985 RMK A01 T01530117  RH  079%=      5-min Rain = 0
KCH1 222113Z 13005KT 15/12 A2985 RMK A01 T01540115  RH  078%=      5-min Rain = 0
KCH1 222114Z 16005KT 15/12 A2985 RMK A01 T01530115  RH  078%=      5-min Rain = 0
KCH1 222115Z 19004KT 15/11 A2985 RMK A01 T01530110  RH  076%=      5-min Rain = 0
KCH1 222116Z 17009G15KT 15/11 A2984 RMK A01 T01530110  RH  076%=      5-min Rain = 0
KCH1 222117Z 12008KT 15/11 A2985 RMK A01 T01510111  RH  077%=      5-min Rain = 0
KCH1 222118Z 11004KT 15/11 A2985 RMK A01 T01500114  RH  079%=      5-min Rain = 0
KCH1 222119Z 11005KT 15/12 A2985 RMK A01 T01530115  RH  078%=      5-min Rain = 0
KCH1 222120Z 14006KT 16/12 A2985 RMK A01 T01550115  RH  077%=      5-min Rain = 0
KCH1 222121Z 13005KT 16/12 A2985 RMK A01 T01570116  RH  076%=      5-min Rain = 0
KCH1 222122Z 11005KT 16/11 A2985 RMK A01 T01560112  RH  075%=      5-min Rain = 0
KCH1 222123Z 12006KT 15/11 A2985 RMK A01 T01520113  RH  077%=      5-min Rain = 0
KCH1 222124Z 13005KT 15/11 A2985 RMK A01 T01500111  RH  078%=      5-min Rain = 0
KCH1 222125Z 13005KT 15/11 A2985 RMK A01 T01480112  RH  079%=      5-min Rain = 0
KCH1 222126Z 14005KT 15/11 A2984 RMK A01 T01460111  RH  080%=      5-min Rain = 0
KCH1 222127Z 15003KT 14/11 A2984 RMK A01 T01440112  RH  081%=      5-min Rain = 0
KCH1 222128Z 12006KT 15/11 A2984 RMK A01 T01450113  RH  081%=      5-min Rain = 0
KCH1 222129Z 17006KT 15/11 A2984 RMK A01 T01460112  RH  080%=      5-min Rain = 0
KCH1 222130Z 13006KT 15/11 A2984 RMK A01 T01470110  RH  079%=      5-min Rain = 0
KCH1 222131Z 15006KT 15/11 A2984 RMK A01 T01460109  RH  078%=      5-min Rain = 0
KCH1 222132Z 15006KT 15/11 A2984 RMK A01 T01450109  RH  079%=      5-min Rain = 0
KCH1 222133Z 15006KT 15/11 A2984 RMK A01 T01450108  RH  078%=      5-min Rain = 0
KCH1 222134Z 15004KT 14/11 A2984 RMK A01 T01440108  RH  079%=      5-min Rain = 0
KCH1 222135Z 13007KT 15/11 A2984 RMK A01 T01450108  RH  079%=      5-min Rain = 0
KCH1 222136Z 13006KT 15/11 A2984 RMK A01 T01450106  RH  077%=      5-min Rain = 0
KCH1 222137Z 14006KT 15/11 A2985 RMK A01 T01450106  RH  077%=      5-min Rain = 0
KCH1 222138Z 17005KT 15/11 A2984 RMK A01 T01470105  RH  076%=      5-min Rain = 0
KCH1 222139Z 17007KT 15/10 A2984 RMK A01 T01480104  RH  075%=      5-min Rain = 0
KCH1 222140Z 17006KT 15/11 A2984 RMK A01 T01490105  RH  075%=      5-min Rain = 0
KCH1 222141Z 15007KT 15/11 A2984 RMK A01 T01490106  RH  075%=      5-min Rain = 0
KCH1 222142Z 17006KT 15/11 A2984 RMK A01 T01500107  RH  076%=      5-min Rain = 0
KCH1 222143Z 15006KT 15/11 A2984 RMK A01 T01500108  RH  076%=      5-min Rain = 0
KCH1 222144Z 14005KT 15/11 A2984 RMK A01 T01500110  RH  077%=      5-min Rain = 0
KCH1 222145Z 15005KT 15/11 A2984 RMK A01 T01510110  RH  077%=      5-min Rain = 0
KCH1 222146Z 14008KT 15/11 A2984 RMK A01 T01510110  RH  077%=      5-min Rain = 0
KCH1 222147Z 14008KT 15/11 A2984 RMK A01 T01480108  RH  077%=      5-min Rain = 0
KCH1 222148Z 14006KT 15/11 A2984 RMK A01 T01470107  RH  077%=      5-min Rain = 0
KCH1 222149Z 15006KT 15/11 A2984 RMK A01 T01450107  RH  078%=      5-min Rain = 0
KCH1 222150Z 15006KT 15/11 A2984 RMK A01 T01450108  RH  078%=      5-min Rain = 0
KCH1 222151Z 15006KT 15/11 A2984 RMK A01 T01460107  RH  077%=      5-min Rain = 0
KCH1 222152Z 15008KT 15/11 A2984 RMK A01 T01480108  RH  077%=      5-min Rain = 0
KCH1 222153Z 15007KT 15/11 A2984 RMK A01 T01480108  RH  077%=      5-min Rain = 0
KCH1 222154Z 14007KT 15/11 A2984 RMK A01 T01490108  RH  077%=      5-min Rain = 0
KCH1 222155Z 15007KT 15/11 A2984 RMK A01 T01480108  RH  077%=      5-min Rain = 0
KCH1 222156Z 14007KT 15/11 A2984 RMK A01 T01470109  RH  078%=      5-min Rain = 0
KCH1 222157Z 15009KT 15/11 A2984 RMK A01 T01480109  RH  077%=      5-min Rain = 0
KCH1 222158Z 13009KT 15/11 A2984 RMK A01 T01500108  RH  076%=      5-min Rain = 0
KCH1 222159Z 14007KT 15/11 A2984 RMK A01 T01510107  RH  075%=      5-min Rain = 0
KCH1 222200Z 15006KT 15/11 A2984 RMK A01 T01520107  RH  074%=      5-min Rain = 0
KCH1 222201Z 16007KT 15/11 A2984 RMK A01 T01540106  RH  073%=      5-min Rain = 0
KCH1 222202Z 15008KT 16/10 A2984 RMK A01 T01560104  RH  071%=      5-min Rain = 0
KCH1 222203Z 15006KT 16/10 A2984 RMK A01 T01560104  RH  071%=      5-min Rain = 0
KCH1 222204Z 14007KT 16/11 A2983 RMK A01 T01580105  RH  071%=      5-min Rain = 0
KCH1 222205Z 12008KT 16/11 A2983 RMK A01 T01590106  RH  071%=      5-min Rain = 0
KCH1 222206Z 14007KT 16/11 A2983 RMK A01 T01590106  RH  071%=      5-min Rain = 0
KCH1 222207Z 14010KT 16/11 A2983 RMK A01 T01590106  RH  071%=      5-min Rain = 0
KCH1 222208Z 14008KT 16/10 A2983 RMK A01 T01580104  RH  070%=      5-min Rain = 0
KCH1 222209Z 14008KT 16/10 A2983 RMK A01 T01560104  RH  071%=      5-min Rain = 0
KCH1 222210Z 13007KT 16/10 A2983 RMK A01 T01550104  RH  071%=      5-min Rain = 0
KCH1 222211Z 15009KT 16/11 A2983 RMK A01 T01560105  RH  072%=      5-min Rain = 0
KCH1 222212Z 14008KT 16/10 A2983 RMK A01 T01570104  RH  071%=      5-min Rain = 0
KCH1 222213Z 15007KT 16/10 A2983 RMK A01 T01570104  RH  071%=      5-min Rain = 0
KCH1 222214Z 15006KT 16/11 A2983 RMK A01 T01600107  RH  071%=      5-min Rain = 0
KCH1 222215Z 13005KT 16/11 A2983 RMK A01 T01610107  RH  070%=      5-min Rain = 0
KCH1 222216Z 12005KT 16/11 A2983 RMK A01 T01610105  RH  069%=      5-min Rain = 0
KCH1 222217Z 11006KT 16/10 A2983 RMK A01 T01600104  RH  069%=      5-min Rain = 0
KCH1 222218Z 11006KT 16/10 A2983 RMK A01 T01580103  RH  070%=      5-min Rain = 0
KCH1 222219Z 13006KT 16/10 A2983 RMK A01 T01590103  RH  069%=      5-min Rain = 0
KCH1 222220Z 17006KT 16/11 A2983 RMK A01 T01590106  RH  070%=      5-min Rain = 0
KCH1 222221Z 15006KT 16/11 A2983 RMK A01 T01600107  RH  071%=      5-min Rain = 0
KCH1 222222Z 12007KT 16/11 A2983 RMK A01 T01620109  RH  071%=      5-min Rain = 0
KCH1 222223Z 13009KT 17/11 A2983 RMK A01 T01650109  RH  069%=      5-min Rain = 0
KCH1 222224Z 14007G13KT 16/11 A2982 RMK A01 T01630110  RH  071%=      5-min Rain = 0
KCH1 222225Z 12008KT 16/11 A2983 RMK A01 T01620112  RH  072%=      5-min Rain = 0
KCH1 222226Z 12009KT 16/11 A2983 RMK A01 T01620111  RH  072%=      5-min Rain = 0
KCH1 222227Z 11011KT 16/11 A2983 RMK A01 T01610111  RH  072%=      5-min Rain = 0
KCH1 222228Z 11010KT 16/11 A2983 RMK A01 T01560111  RH  074%=      5-min Rain = 0
KCH1 222229Z 12008KT 15/11 A2983 RMK A01 T01530112  RH  076%=      5-min Rain = 0
KCH1 222230Z 12010KT 15/11 A2983 RMK A01 T01520113  RH  077%=      5-min Rain = 0
KCH1 222231Z 11009KT 15/11 A2983 RMK A01 T01510111  RH  077%=      5-min Rain = 0
KCH1 222232Z 10007KT 15/11 A2983 RMK A01 T01490112  RH  078%=      5-min Rain = 0
KCH1 222233Z 09010KT 15/11 A2983 RMK A01 T01480112  RH  079%=      5-min Rain = 0
KCH1 222234Z 09010KT 15/11 A2983 RMK A01 T01470111  RH  079%=      5-min Rain = 0
KCH1 222235Z 09009KT 15/11 A2983 RMK A01 T01450110  RH  079%=      5-min Rain = 0
KCH1 222236Z 09009KT 14/11 A2983 RMK A01 T01440111  RH  080%=      5-min Rain = 0
KCH1 222237Z 10008KT 14/11 A2983 RMK A01 T01440111  RH  080%=      5-min Rain = 0
KCH1 222238Z 11009KT 14/11 A2982 RMK A01 T01440110  RH  080%=      5-min Rain = 0
KCH1 222239Z 09007KT 14/11 A2982 RMK A01 T01440110  RH  080%=      5-min Rain = 0
KCH1 222240Z 09010KT 14/11 A2982 RMK A01 T01440110  RH  080%=      5-min Rain = 0
KCH1 222241Z 09009KT 14/11 A2982 RMK A01 T01440110  RH  080%=      5-min Rain = 0
KCH1 222242Z 09008KT 14/11 A2982 RMK A01 T01440110  RH  080%=      5-min Rain = 0
KCH1 222243Z 09010KT 14/11 A2982 RMK A01 T01440110  RH  080%=      5-min Rain = 0
KCH1 222244Z 09009KT 14/11 A2982 RMK A01 T01440111  RH  081%=      5-min Rain = 0
KCH1 222245Z 10008KT 14/11 A2982 RMK A01 T01440111  RH  081%=      5-min Rain = 0
KCH1 222246Z 09008KT 14/11 A2982 RMK A01 T01440112  RH  081%=      5-min Rain = 0
KCH1 222247Z 09009KT 14/11 A2982 RMK A01 T01440111  RH  081%=      5-min Rain = 0
KCH1 222248Z 09009KT 14/11 A2982 RMK A01 T01430111  RH  081%=      5-min Rain = 0
KCH1 222249Z 08008KT 14/11 A2982 RMK A01 T01420112  RH  082%=      5-min Rain = 0
KCH1 222250Z 08009KT 14/11 A2982 RMK A01 T01420112  RH  082%=      5-min Rain = 0
KCH1 222251Z 08008KT 14/11 A2982 RMK A01 T01410112  RH  082%=      5-min Rain = 0
KCH1 222252Z 09009KT 14/11 A2981 RMK A01 T01400111  RH  082%=      5-min Rain = 0
KCH1 222253Z 08008KT 14/11 A2981 RMK A01 T01400111  RH  083%=      5-min Rain = 0
KCH1 222254Z 08008KT 14/11 A2981 RMK A01 T01390111  RH  083%=      5-min Rain = 0
KCH1 222255Z 08009KT 14/11 A2982 RMK A01 T01380110  RH  083%=      5-min Rain = 0
KCH1 222256Z 09007KT 14/11 A2982 RMK A01 T01380110  RH  083%=      5-min Rain = 0
KCH1 222257Z 10007KT 14/11 A2982 RMK A01 T01380110  RH  083%=      5-min Rain = 0
KCH1 222258Z 11006KT 14/11 A2982 RMK A01 T01380110  RH  083%=      5-min Rain = 0
KCH1 222259Z 10007KT 14/11 A2982 RMK A01 T01380110  RH  083%=      5-min Rain = 0
KCH1 222300Z 10006KT 14/11 A2982 RMK A01 T01380110  RH  083%=      5-min Rain = 0
KCH1 222301Z 11007KT 14/11 A2982 RMK A01 T01380110  RH  083%=      5-min Rain = 0
KCH1 222302Z 10008KT 14/11 A2982 RMK A01 T01380109  RH  083%=      5-min Rain = 0
KCH1 222303Z 10007KT 14/11 A2982 RMK A01 T01370109  RH  083%=      5-min Rain = 0
KCH1 222304Z 10007KT 14/11 A2982 RMK A01 T01380109  RH  083%=      5-min Rain = 0
KCH1 222305Z 10006KT 14/11 A2982 RMK A01 T01390110  RH  083%=      5-min Rain = 0
KCH1 222306Z 09005KT 14/11 A2981 RMK A01 T01410111  RH  082%=      5-min Rain = 0
KCH1 222307Z 09004KT 14/11 A2981 RMK A01 T01430112  RH  081%=      5-min Rain = 0
KCH1 222308Z 07007KT 15/11 A2981 RMK A01 T01460113  RH  080%=      5-min Rain = 0
KCH1 222309Z 10009KT 15/11 A2981 RMK A01 T01480112  RH  079%=      5-min Rain = 0
KCH1 222310Z 10007KT 15/11 A2981 RMK A01 T01490113  RH  079%=      5-min Rain = 0
KCH1 222311Z 09008KT 15/11 A2981 RMK A01 T01520114  RH  078%=      5-min Rain = 0
KCH1 222312Z 08008KT 15/11 A2981 RMK A01 T01540113  RH  076%=      5-min Rain = 0
KCH1 222313Z 09008KT 16/11 A2981 RMK A01 T01550112  RH  076%=      5-min Rain = 0
KCH1 222314Z 08010KT 15/11 A2981 RMK A01 T01540111  RH  075%=      5-min Rain = 0
KCH1 222315Z 09009KT 15/11 A2981 RMK A01 T01510109  RH  076%=      5-min Rain = 0
KCH1 222316Z 09008KT 15/11 A2981 RMK A01 T01500109  RH  077%=      5-min Rain = 0
KCH1 222317Z 08010KT 15/11 A2981 RMK A01 T01480109  RH  077%=      5-min Rain = 0
KCH1 222318Z 09009KT 15/11 A2981 RMK A01 T01460108  RH  078%=      5-min Rain = 0
KCH1 222319Z 10007KT 15/11 A2981 RMK A01 T01450108  RH  079%=      5-min Rain = 0
KCH1 222320Z 11008KT 15/11 A2981 RMK A01 T01450109  RH  079%=      5-min Rain = 0
KCH1 222321Z 11008KT 15/11 A2981 RMK A01 T01450108  RH  078%=      5-min Rain = 0
KCH1 222322Z 10008KT 14/11 A2981 RMK A01 T01440107  RH  079%=      5-min Rain = 0
KCH1 222323Z 11007KT 14/11 A2981 RMK A01 T01420106  RH  079%=      5-min Rain = 0
KCH1 222324Z 11007KT 14/11 A2981 RMK A01 T01410106  RH  079%=      5-min Rain = 0
KCH1 222325Z 10008KT 14/11 A2981 RMK A01 T01400106  RH  080%=      5-min Rain = 0
KCH1 222326Z 10009KT 14/11 A2981 RMK A01 T01400106  RH  080%=      5-min Rain = 0
KCH1 222327Z 10008KT 14/11 A2981 RMK A01 T01400107  RH  081%=      5-min Rain = 0
KCH1 222328Z 10007KT 14/11 A2981 RMK A01 T01390107  RH  081%=      5-min Rain = 0
KCH1 222329Z 11006KT 14/11 A2981 RMK A01 T01390107  RH  081%=      5-min Rain = 0
KCH1 222330Z 11006KT 14/11 A2981 RMK A01 T01380107  RH  082%=      5-min Rain = 0
KCH1 222331Z 10006KT 14/11 A2981 RMK A01 T01370107  RH  082%=      5-min Rain = 0
KCH1 222332Z 10005KT 14/11 A2981 RMK A01 T01360107  RH  082%=      5-min Rain = 0
KCH1 222333Z 10006KT 14/11 A2981 RMK A01 T01360107  RH  083%=      5-min Rain = 0
KCH1 222334Z 11005KT 14/11 A2981 RMK A01 T01360108  RH  083%=      5-min Rain = 0
KCH1 222335Z 11005KT 14/11 A2981 RMK A01 T01360108  RH  083%=      5-min Rain = 0
KCH1 222336Z 10007KT 14/11 A2981 RMK A01 T01360108  RH  083%=      5-min Rain = 0
KCH1 222337Z 10007KT 14/11 A298 RMK A01 T01370108  RH  083%=      5-min Rain = 0
KCH1 222338Z 09007KT 14/11 A298 RMK A01 T01380109  RH  082%=      5-min Rain = 0
KCH1 222339Z 09007KT 14/11 A298 RMK A01 T01400109  RH  082%=      5-min Rain = 0
KCH1 222340Z 11008KT 14/11 A298 RMK A01 T01410110  RH  081%=      5-min Rain = 0
KCH1 222341Z 10007KT 14/11 A298 RMK A01 T01420110  RH  081%=      5-min Rain = 0
KCH1 222342Z 09007KT 14/11 A298 RMK A01 T01430110  RH  080%=      5-min Rain = 0
KCH1 222343Z 10006KT 14/11 A298 RMK A01 T01430109  RH  080%=      5-min Rain = 0
KCH1 222344Z 11008KT 14/11 A298 RMK A01 T01430109  RH  080%=      5-min Rain = 0
KCH1 222345Z 10008KT 14/11 A298 RMK A01 T01430109  RH  080%=      5-min Rain = 0
KCH1 222346Z 10006KT 14/11 A298 RMK A01 T01420108  RH  080%=      5-min Rain = 0
KCH1 222347Z 11006KT 14/11 A298 RMK A01 T01410109  RH  081%=      5-min Rain = 0
KCH1 222348Z 10007KT 14/11 A2981 RMK A01 T01410109  RH  081%=      5-min Rain = 0
KCH1 222349Z 10009KT 14/11 A2981 RMK A01 T01400108  RH  081%=      5-min Rain = 0
KCH1 222350Z 10007KT 14/11 A2981 RMK A01 T01400108  RH  081%=      5-min Rain = 0
KCH1 222351Z 10006KT 14/11 A2981 RMK A01 T01390108  RH  081%=      5-min Rain = 0
KCH1 222352Z 09007KT 14/11 A298 RMK A01 T01390108  RH  082%=      5-min Rain = 0
KCH1 222353Z 11006KT 14/11 A298 RMK A01 T01390108  RH  082%=      5-min Rain = 0
KCH1 222354Z 10007KT 14/11 A298 RMK A01 T01390109  RH  082%=      5-min Rain = 0
KCH1 222355Z 11007KT 14/11 A298 RMK A01 T01390109  RH  082%=      5-min Rain = 0
KCH1 222356Z 11007KT 14/11 A298 RMK A01 T01390109  RH  082%=      5-min Rain = 0
KCH1 222357Z 11007KT 14/11 A298 RMK A01 T01390109  RH  082%=      5-min Rain = 0
KCH1 222358Z 10007KT 14/11 A298 RMK A01 T01390109  RH  082%=      5-min Rain = 0
KCH1 222359Z 10010KT 14/11 A298 RMK A01 T01390109  RH  082%=      5-min Rain = 0
KCH1 230000Z 10009KT 14/11 A298 RMK A01 T01390109  RH  082%=      5-min Rain = 0
KCH1 230001Z 09009KT 14/11 A298 RMK A01 T01390110  RH  083%=      5-min Rain = 0
KCH1 230002Z 09006KT 14/11 A298 RMK A01 T01380109  RH  083%=      5-min Rain = 0
KCH1 230003Z 09009KT 14/11 A298 RMK A01 T01380109  RH  083%=      5-min Rain = 0
KCH1 230004Z 10007KT 14/11 A298 RMK A01 T01370109  RH  083%=      5-min Rain = 0
KCH1 230005Z 09007KT 14/11 A298 RMK A01 T01360109  RH  083%=      5-min Rain = 0
KCH1 230006Z 09007KT 14/11 A298 RMK A01 T01360109  RH  084%=      5-min Rain = 0
KCH1 230007Z 10008KT 14/11 A298 RMK A01 T01360109  RH  084%=      5-min Rain = 0
KCH1 230008Z 10008KT 14/11 A298 RMK A01 T01350108  RH  084%=      5-min Rain = 0
KCH1 230009Z 10005KT 13/11 A298 RMK A01 T01340108  RH  084%=      5-min Rain = 0
KCH1 230010Z 10007KT 13/11 A298 RMK A01 T01340108  RH  084%=      5-min Rain = 0
KCH1 230011Z 10007KT 13/11 A298 RMK A01 T01330109  RH  085%=      5-min Rain = 0
KCH1 230012Z 10005KT 13/11 A2981 RMK A01 T01330108  RH  085%=      5-min Rain = 0
KCH1 230013Z 11006KT 13/11 A2981 RMK A01 T01330108  RH  085%=      5-min Rain = 0
KCH1 230014Z 10007KT 13/11 A2981 RMK A01 T01320108  RH  085%=      5-min Rain = 0
KCH1 230015Z 10005KT 13/11 A2981 RMK A01 T01320108  RH  086%=      5-min Rain = 0
KCH1 230016Z 10005KT 13/11 A2981 RMK A01 T01320108  RH  085%=      5-min Rain = 0
KCH1 230017Z 09005KT 13/11 A2981 RMK A01 T01310107  RH  085%=      5-min Rain = 0
KCH1 230018Z 10005KT 13/11 A2981 RMK A01 T01310107  RH  086%=      5-min Rain = 0
KCH1 230019Z 09006KT 13/11 A2981 RMK A01 T01300108  RH  086%=      5-min Rain = 0
KCH1 230020Z 10006KT 13/11 A2981 RMK A01 T01300107  RH  086%=      5-min Rain = 0
KCH1 230021Z 10006KT 13/11 A2981 RMK A01 T01290107  RH  086%=      5-min Rain = 0
KCH1 230022Z 10006KT 13/11 A2981 RMK A01 T01290107  RH  087%=      5-min Rain = 0
KCH1 230023Z 10007KT 13/11 A2981 RMK A01 T01290108  RH  087%=      5-min Rain = 0
KCH1 230024Z 10007KT 13/11 A2981 RMK A01 T01290108  RH  087%=      5-min Rain = 0
KCH1 230025Z 10005KT 13/11 A2981 RMK A01 T01290107  RH  086%=      5-min Rain = 0
KCH1 230026Z 10006KT 13/11 A2981 RMK A01 T01280106  RH  087%=      5-min Rain = 0
KCH1 230027Z 10007KT 13/11 A2981 RMK A01 T01270107  RH  087%=      5-min Rain = 0
KCH1 230028Z 10007KT 13/11 A2981 RMK A01 T01270107  RH  087%=      5-min Rain = 0
KCH1 230029Z 10006KT 13/11 A2981 RMK A01 T01270107  RH  087%=      5-min Rain = 0
KCH1 230030Z 10006KT 13/11 A2981 RMK A01 T01270106  RH  087%=      5-min Rain = 0
KCH1 230031Z 10006KT 13/11 A2981 RMK A01 T01260106  RH  087%=      5-min Rain = 0
KCH1 230032Z 10005KT 13/11 A2981 RMK A01 T01260106  RH  088%=      5-min Rain = 0
KCH1 230033Z 10005KT 13/11 A2981 RMK A01 T01250106  RH  088%=      5-min Rain = 0
KCH1 230034Z 10006KT 13/11 A2981 RMK A01 T01250105  RH  088%=      5-min Rain = 0
KCH1 230035Z 09005KT 12/11 A2981 RMK A01 T01240105  RH  088%=      5-min Rain = 0
KCH1 230036Z 09006KT 12/11 A2981 RMK A01 T01240105  RH  088%=      5-min Rain = 0
KCH1 230037Z 09006KT 12/11 A2981 RMK A01 T01230105  RH  089%=      5-min Rain = 0
KCH1 230038Z 09005KT 12/11 A2981 RMK A01 T01230105  RH  089%=      5-min Rain = 0
KCH1 230039Z 10006KT 12/11 A2981 RMK A01 T01230105  RH  089%=      5-min Rain = 0
KCH1 230040Z 10006KT 12/11 A2981 RMK A01 T01230105  RH  089%=      5-min Rain = 0
KCH1 230041Z 10006KT 12/10 A2981 RMK A01 T01230104  RH  089%=      5-min Rain = 0
KCH1 230042Z 10006KT 12/10 A2981 RMK A01 T01220104  RH  089%=      5-min Rain = 0
KCH1 230043Z 10007KT 12/10 A2981 RMK A01 T01220104  RH  089%=      5-min Rain = 0
KCH1 230044Z 10006KT 12/10 A2981 RMK A01 T01210103  RH  089%=      5-min Rain = 0
KCH1 230045Z 10006KT 12/10 A2981 RMK A01 T01200102  RH  089%=      5-min Rain = 0
KCH1 230046Z 10006KT 12/10 A2981 RMK A01 T01190103  RH  089%=      5-min Rain = 0
KCH1 230047Z 10006KT 12/10 A2981 RMK A01 T01200103  RH  090%=      5-min Rain = 0
KCH1 230048Z 10007KT 12/10 A2981 RMK A01 T01180102  RH  090%=      5-min Rain = 0
KCH1 230049Z 10007KT 12/10 A2981 RMK A01 T01180103  RH  090%=      5-min Rain = 0
KCH1 230050Z 11007KT 12/10 A2981 RMK A01 T01180103  RH  090%=      5-min Rain = 0
KCH1 230051Z 11007KT 12/10 A2981 RMK A01 T01180102  RH  090%=      5-min Rain = 0
KCH1 230052Z 11008KT 12/10 A2981 RMK A01 T01180102  RH  090%=      5-min Rain = 0
KCH1 230053Z 11009KT 12/10 A2981 RMK A01 T01180103  RH  090%=      5-min Rain = 0
KCH1 230054Z 10008KT 12/10 A2981 RMK A01 T01190102  RH  090%=      5-min Rain = 0
KCH1 230055Z 10007KT 12/10 A2981 RMK A01 T01180102  RH  089%=      5-min Rain = 0
KCH1 230056Z 10007KT 12/10 A2981 RMK A01 T01170101  RH  090%=      5-min Rain = 0
KCH1 230057Z 10009KT 12/10 A2982 RMK A01 T01170101  RH  090%=      5-min Rain = 0
KCH1 230058Z 09008KT 12/10 A2982 RMK A01 T01170102  RH  091%=      5-min Rain = 0
KCH1 230059Z 09008KT 12/10 A2981 RMK A01 T01160101  RH  090%=      5-min Rain = 0
KCH1 230100Z 08007KT 12/10 A2981 RMK A01 T01160101  RH  091%=      5-min Rain = 0
KCH1 230101Z 09008KT 12/10 A2981 RMK A01 T01150101  RH  091%=      5-min Rain = 0
KCH1 230102Z 08008KT 11/10 A2981 RMK A01 T01140101  RH  092%=      5-min Rain = 0
KCH1 230103Z 08007KT 11/10 A2982 RMK A01 T01140102  RH  092%=      5-min Rain = 0
KCH1 230104Z 08008KT 11/10 A2982 RMK A01 T01130101  RH  092%=      5-min Rain = 0
KCH1 230105Z 08009KT 11/10 A2982 RMK A01 T01130102  RH  093%=      5-min Rain = 0
KCH1 230106Z 08009KT 11/10 A2982 RMK A01 T01130102  RH  093%=      5-min Rain = 0
KCH1 230107Z 08008KT 11/10 A2982 RMK A01 T01130103  RH  093%=      5-min Rain = 0
KCH1 230108Z 08009KT 11/10 A2982 RMK A01 T01130102  RH  093%=      5-min Rain = 0
KCH1 230109Z 08009KT 11/10 A2982 RMK A01 T01130102  RH  093%=      5-min Rain = 0
KCH1 230110Z 08008KT 11/10 A2982 RMK A01 T01120102  RH  093%=      5-min Rain = 0
KCH1 230111Z 08007KT 11/10 A2982 RMK A01 T01120101  RH  093%=      5-min Rain = 0
KCH1 230112Z 08008KT 11/10 A2982 RMK A01 T01110101  RH  094%=      5-min Rain = 0
KCH1 230113Z 09008KT 11/10 A2982 RMK A01 T01100100  RH  094%=      5-min Rain = 0
KCH1 230114Z 08008KT 11/10 A2982 RMK A01 T01090101  RH  095%=      5-min Rain = 0
KCH1 230115Z 08007KT 11/10 A2982 RMK A01 T01090101  RH  095%=      5-min Rain = 0
KCH1 230116Z 08008KT 11/10 A2982 RMK A01 T01090101  RH  095%=      5-min Rain = 0
KCH1 230117Z 08008KT 11/10 A2982 RMK A01 T01090101  RH  095%=      5-min Rain = 0
KCH1 230118Z 09010KT 11/10 A2982 RMK A01 T01080100  RH  095%=      5-min Rain = 0
KCH1 230119Z 08009KT 11/10 A2982 RMK A01 T01080101  RH  095%=      5-min Rain = 0
KCH1 230120Z 09008KT 11/10 A2981 RMK A01 T01080101  RH  096%=      5-min Rain = 0
KCH1 230121Z 08008KT 11/10 A2981 RMK A01 T01080101  RH  096%=      5-min Rain = 0
KCH1 230122Z 09009KT 11/10 A2982 RMK A01 T01070100  RH  096%=      5-min Rain = 0
KCH1 230123Z 08008KT 11/10 A2982 RMK A01 T01070101  RH  096%=      5-min Rain = 0
KCH1 230124Z 09007KT 11/10 A2982 RMK A01 T01060100  RH  096%=      5-min Rain = 0
KCH1 230125Z 09008KT 11/10 A2982 RMK A01 T01060100  RH  096%=      5-min Rain = 0
KCH1 230126Z 09007G12KT 11/10 A2982 RMK A01 T01050100  RH  096%=      5-min Rain = 0
KCH1 230127Z 09008KT 11/10 A2982 RMK A01 T01050099  RH  096%=      5-min Rain = 0
KCH1 230128Z 08009KT 11/10 A2982 RMK A01 T01050100  RH  097%=      5-min Rain = 0
KCH1 230129Z 08007KT 11/10 A2982 RMK A01 T01050100  RH  097%=      5-min Rain = 0
KCH1 230130Z 08008KT 11/10 A2982 RMK A01 T01050100  RH  097%=      5-min Rain = 0
KCH1 230131Z 08008KT 11/10 A2982 RMK A01 T01050101  RH  097%=      5-min Rain = 0
KCH1 230132Z 08009KT 11/10 A2982 RMK A01 T01050101  RH  097%=      5-min Rain = 0
KCH1 230133Z 09008KT 11/10 A2982 RMK A01 T01050100  RH  097%=      5-min Rain = 0
KCH1 230134Z 08008KT 10/10 A2982 RMK A01 T01040100  RH  097%=      5-min Rain = 0
KCH1 230135Z 08009KT 10/10 A2982 RMK A01 T01040100  RH  097%=      5-min Rain = 0
KCH1 230136Z 08007KT 10/10 A2982 RMK A01 T01040100  RH  097%=      5-min Rain = 0
KCH1 230137Z 08009KT 10/10 A2982 RMK A01 T01040100  RH  097%=      5-min Rain = 0
KCH1 230138Z 08007KT 10/10 A2982 RMK A01 T01040100  RH  098%=      5-min Rain = 0
KCH1 230139Z 08007KT 10/10 A2982 RMK A01 T01040100  RH  098%=      5-min Rain = 0
KCH1 230140Z 08008KT 10/10 A2982 RMK A01 T01030100  RH  097%=      5-min Rain = 0
KCH1 230141Z 09007KT 10/10 A2982 RMK A01 T01030099  RH  097%=      5-min Rain = 0
KCH1 230142Z 09008KT 10/10 A2982 RMK A01 T01030099  RH  098%=      5-min Rain = 0
KCH1 230143Z 08009KT 10/10 A2982 RMK A01 T01030099  RH  098%=      5-min Rain = 0
KCH1 230144Z 08008KT 10/10 A2982 RMK A01 T01030099  RH  098%=      5-min Rain = 0
KCH1 230145Z 09008KT 10/10 A2982 RMK A01 T01030099  RH  098%=      5-min Rain = 0
KCH1 230146Z 09009KT 10/10 A2981 RMK A01 T01020098  RH  098%=      5-min Rain = 0
KCH1 230147Z 09010KT 10/10 A2981 RMK A01 T01020099  RH  098%=      5-min Rain = 0
KCH1 230148Z 09010KT 10/10 A2981 RMK A01 T01020099  RH  098%=      5-min Rain = 0
KCH1 230149Z 09008KT 10/10 A2981 RMK A01 T01020100  RH  098%=      5-min Rain = 0
KCH1 230150Z 09009KT 10/10 A2981 RMK A01 T01020099  RH  098%=      5-min Rain = 0
KCH1 230151Z 09009KT 10/10 A2981 RMK A01 T01020099  RH  098%=      5-min Rain = 0
KCH1 230152Z 09011KT 10/10 A2981 RMK A01 T01020100  RH  098%=      5-min Rain = 0
KCH1 230153Z 09009KT 10/10 A2981 RMK A01 T01020100  RH  098%=      5-min Rain = 0
KCH1 230154Z 09009KT 10/10 A2981 RMK A01 T01020100  RH  098%=      5-min Rain = 0
KCH1 230155Z 09009KT 10/10 A2981 RMK A01 T01020100  RH  098%=      5-min Rain = 0
KCH1 230156Z 09008KT 10/10 A2981 RMK A01 T01020100  RH  098%=      5-min Rain = 0
KCH1 230157Z 09009KT 10/10 A2981 RMK A01 T01020099  RH  098%=      5-min Rain = 0
KCH1 230158Z 08009KT 10/10 A2981 RMK A01 T01010099  RH  098%=      5-min Rain = 0
KCH1 230159Z 09010KT 10/10 A2981 RMK A01 T01010099  RH  098%=      5-min Rain = 0
KCH1 230200Z 08008KT 10/10 A2981 RMK A01 T01010099  RH  099%=      5-min Rain = 0
KCH1 230201Z 09008KT 10/10 A2981 RMK A01 T01020099  RH  098%=      5-min Rain = 0
KCH1 230202Z 09007KT 10/10 A2981 RMK A01 T01010099  RH  098%=      5-min Rain = 0
KCH1 230203Z 09009KT 10/10 A2981 RMK A01 T01010099  RH  099%=      5-min Rain = 0
KCH1 230204Z 09008KT 10/10 A2981 RMK A01 T01020100  RH  099%=      5-min Rain = 0
KCH1 230205Z 09009KT 10/10 A2981 RMK A01 T01020100  RH  099%=      5-min Rain = 0
KCH1 230206Z 09006KT 10/10 A2981 RMK A01 T01030101  RH  099%=      5-min Rain = 0
KCH1 230207Z 09006KT 10/10 A2981 RMK A01 T01030101  RH  099%=      5-min Rain = 0
KCH1 230208Z 10007KT 10/10 A2982 RMK A01 T01030102  RH  099%=      5-min Rain = 0
KCH1 230209Z 09009KT 10/10 A2981 RMK A01 T01040102  RH  099%=      5-min Rain = 0
KCH1 230210Z 10009KT 10/10 A2981 RMK A01 T01040102  RH  099%=      5-min Rain = 0
KCH1 230211Z 09008KT 10/10 A2981 RMK A01 T01040102  RH  099%=      5-min Rain = 0
KCH1 230212Z 09010KT 11/10 A2981 RMK A01 T01050102  RH  099%=      5-min Rain = 0
KCH1 230213Z 10008KT 11/10 A2981 RMK A01 T01050103  RH  098%=      5-min Rain = 0
KCH1 230214Z 10007KT 11/10 A2981 RMK A01 T01050103  RH  098%=      5-min Rain = 0
KCH1 230215Z 10008KT 11/10 A2981 RMK A01 T01050103  RH  098%=      5-min Rain = 0
KCH1 230216Z 10007KT 11/10 A2981 RMK A01 T01050102  RH  098%=      5-min Rain = 0
KCH1 230217Z 10007KT 11/10 A2981 RMK A01 T01050103  RH  098%=      5-min Rain = 0
KCH1 230218Z 10006KT 11/10 A2981 RMK A01 T01060103  RH  098%=      5-min Rain = 0
KCH1 230219Z 10007KT 11/10 A2981 RMK A01 T01050102  RH  098%=      5-min Rain = 0
KCH1 230220Z 10008KT 11/10 A2981 RMK A01 T01060103  RH  098%=      5-min Rain = 0
KCH1 230221Z 10008KT 11/10 A2982 RMK A01 T01060103  RH  098%=      5-min Rain = 0
KCH1 230222Z 10006KT 11/10 A2982 RMK A01 T01060103  RH  098%=      5-min Rain = 0
KCH1 230223Z 10006KT 11/10 A2982 RMK A01 T01060103  RH  098%=      5-min Rain = 0
KCH1 230224Z 10007KT 11/10 A2982 RMK A01 T01070104  RH  098%=      5-min Rain = 0
KCH1 230225Z 10007KT 11/10 A2981 RMK A01 T01070103  RH  098%=      5-min Rain = 0
KCH1 230226Z 10010KT 11/10 A2981 RMK A01 T01070104  RH  098%=      5-min Rain = 0
KCH1 230227Z 08006KT 11/10 A2981 RMK A01 T01070104  RH  098%=      5-min Rain = 0
KCH1 230228Z 09007KT 11/10 A2981 RMK A01 T01070104  RH  098%=      5-min Rain = 0
KCH1 230229Z 09007KT 11/10 A2981 RMK A01 T01080104  RH  098%=      5-min Rain = 0
KCH1 230230Z 10007KT 11/10 A2981 RMK A01 T01080104  RH  098%=      5-min Rain = 0
KCH1 230231Z 10006KT 11/10 A2981 RMK A01 T01080104  RH  098%=      5-min Rain = 0
KCH1 230232Z 09006KT 11/10 A2981 RMK A01 T01080104  RH  097%=      5-min Rain = 0
KCH1 230233Z 10007KT 11/10 A2981 RMK A01 T01080104  RH  097%=      5-min Rain = 0
KCH1 230234Z 10006KT 11/10 A2981 RMK A01 T01080104  RH  097%=      5-min Rain = 0
KCH1 230235Z 11006G12KT 11/10 A2981 RMK A01 T01080104  RH  097%=      5-min Rain = 0
KCH1 230236Z 10010KT 11/10 A2981 RMK A01 T01080104  RH  097%=      5-min Rain = 0
KCH1 230237Z 10007KT 11/10 A2981 RMK A01 T01090104  RH  097%=      5-min Rain = 0
KCH1 230238Z 10008KT 11/11 A2981 RMK A01 T01090105  RH  097%=      5-min Rain = 0
KCH1 230239Z 10007KT 11/11 A2981 RMK A01 T01090105  RH  097%=      5-min Rain = 0
KCH1 230240Z 10009KT 11/11 A2981 RMK A01 T01090105  RH  097%=      5-min Rain = 0
KCH1 230241Z 10007KT 11/11 A2981 RMK A01 T01090105  RH  097%=      5-min Rain = 0
KCH1 230242Z 10007KT 11/11 A2981 RMK A01 T01100105  RH  097%=      5-min Rain = 0
KCH1 230243Z 10007KT 11/11 A2981 RMK A01 T01090105  RH  097%=      5-min Rain = 0
KCH1 230244Z 10008KT 11/11 A2981 RMK A01 T01100106  RH  097%=      5-min Rain = 0
KCH1 230245Z 11008KT 11/11 A298 RMK A01 T01100106  RH  097%=      5-min Rain = 0
KCH1 230246Z 10007KT 11/11 A298 RMK A01 T01100106  RH  097%=      5-min Rain = 0
KCH1 230247Z 10008KT 11/11 A298 RMK A01 T01110106  RH  097%=      5-min Rain = 0
KCH1 230248Z 11007KT 11/11 A298 RMK A01 T01110107  RH  097%=      5-min Rain = 0
KCH1 230249Z 12010KT 11/11 A298 RMK A01 T01110107  RH  097%=      5-min Rain = 0
KCH1 230250Z 10007KT 11/11 A298 RMK A01 T01110107  RH  097%=      5-min Rain = 0
KCH1 230251Z 11007KT 11/11 A298 RMK A01 T01120107  RH  097%=      5-min Rain = 0
KCH1 230252Z 11008KT 11/11 A298 RMK A01 T01120107  RH  097%=      5-min Rain = 0
KCH1 230253Z 11007KT 11/11 A298 RMK A01 T01120107  RH  097%=      5-min Rain = 0
KCH1 230254Z 11007KT 11/11 A298 RMK A01 T01120108  RH  097%=      5-min Rain = 0
KCH1 230255Z 11009KT 11/11 A298 RMK A01 T01120108  RH  097%=      5-min Rain = 0
KCH1 230256Z 11010KT 11/11 A298 RMK A01 T01120108  RH  097%=      5-min Rain = 0
KCH1 230257Z 12008KT 11/11 A298 RMK A01 T01120108  RH  097%=      5-min Rain = 0
KCH1 230258Z 12009KT 11/11 A298 RMK A01 T01130108  RH  097%=      5-min Rain = 0
KCH1 230259Z 12009KT 11/11 A298 RMK A01 T01130109  RH  097%=      5-min Rain = 0
KCH1 230300Z 12008KT 11/11 A298 RMK A01 T01130108  RH  097%=      5-min Rain = 0
KCH1 230301Z 12007KT 11/11 A298 RMK A01 T01130108  RH  097%=      5-min Rain = 0
KCH1 230302Z 11009KT 11/11 A298 RMK A01 T01130109  RH  097%=      5-min Rain = 0
KCH1 230303Z 10009G14KT 11/11 A298 RMK A01 T01130109  RH  097%=      5-min Rain = 0
KCH1 230304Z 11007KT 11/11 A298 RMK A01 T01130109  RH  097%=      5-min Rain = 0
KCH1 230305Z 11009KT 11/11 A298 RMK A01 T01130109  RH  097%=      5-min Rain = 0
KCH1 230306Z 12008KT 11/11 A298 RMK A01 T01140109  RH  097%=      5-min Rain = 0
KCH1 230307Z 10007KT 11/11 A298 RMK A01 T01140109  RH  097%=      5-min Rain = 0
KCH1 230308Z 11008KT 11/11 A298 RMK A01 T01140109  RH  097%=      5-min Rain = 0
KCH1 230309Z 11008KT 11/11 A298 RMK A01 T01140109  RH  097%=      5-min Rain = 0
KCH1 230310Z 11010KT 11/11 A298 RMK A01 T01140110  RH  097%=      5-min Rain = 0
KCH1 230311Z 11009KT 11/11 A298 RMK A01 T01140110  RH  097%=      5-min Rain = 0
KCH1 230312Z 11008KT 12/11 A298 RMK A01 T01150110  RH  097%=      5-min Rain = 0
KCH1 230313Z 11009KT 12/11 A298 RMK A01 T01150110  RH  097%=      5-min Rain = 0
KCH1 230314Z 11007KT 12/11 A298 RMK A01 T01150110  RH  097%=      5-min Rain = 0
KCH1 230315Z 11009KT 12/11 A298 RMK A01 T01150110  RH  097%=      5-min Rain = 0
KCH1 230316Z 11009KT 12/11 A298 RMK A01 T01150110  RH  097%=      5-min Rain = 0
KCH1 230317Z 11012KT 12/11 A298 RMK A01 T01150111  RH  097%=      5-min Rain = 0
KCH1 230318Z 11010KT 12/11 A298 RMK A01 T01150111  RH  097%=      5-min Rain = 0
KCH1 230319Z 11010KT 12/11 A298 RMK A01 T01150110  RH  097%=      5-min Rain = 0
KCH1 230320Z 11009KT 12/11 A298 RMK A01 T01150110  RH  097%=      5-min Rain = 0
KCH1 230321Z 10010KT 12/11 A2979 RMK A01 T01150111  RH  097%=      5-min Rain = 0
KCH1 230322Z 11010KT 12/11 A2979 RMK A01 T01150110  RH  097%=      5-min Rain = 0
KCH1 230323Z 11012KT 12/11 A2979 RMK A01 T01150111  RH  097%=      5-min Rain = 0
KCH1 230324Z 11009KT 12/11 A2979 RMK A01 T01160112  RH  097%=      5-min Rain = 0
KCH1 230325Z 11010KT 12/11 A2979 RMK A01 T01150112  RH  097%=      5-min Rain = 0
KCH1 230326Z 11007KT 12/11 A2979 RMK A01 T01160112  RH  098%=      5-min Rain = 0
KCH1 230327Z 11006KT 12/11 A2979 RMK A01 T01160112  RH  098%=      5-min Rain = 0
KCH1 230328Z 11009KT 12/11 A2979 RMK A01 T01160112  RH  098%=      5-min Rain = 0
KCH1 230329Z 11012KT 12/11 A2979 RMK A01 T01160113  RH  098%=      5-min Rain = 0
KCH1 230330Z 11010KT 12/11 A2979 RMK A01 T01160113  RH  098%=      5-min Rain = 0
KCH1 230331Z 11008KT 12/11 A2979 RMK A01 T01160113  RH  098%=      5-min Rain = 0
KCH1 230332Z 11012KT 12/11 A2979 RMK A01 T01160113  RH  098%=      5-min Rain = 0
KCH1 230333Z 12013KT 12/11 A2979 RMK A01 T01170114  RH  098%=      5-min Rain = 0
KCH1 230334Z 12012KT 12/11 A2979 RMK A01 T01170114  RH  098%=      5-min Rain = 0
KCH1 230335Z 12011KT 12/12 A2979 RMK A01 T01170115  RH  098%=      5-min Rain = 0
KCH1 230336Z 11010KT 12/12 A2979 RMK A01 T01170115  RH  098%=      5-min Rain = 0
KCH1 230337Z 11011KT 12/11 A2979 RMK A01 T01170114  RH  098%=      5-min Rain = 0
KCH1 230338Z 12009KT 12/12 A2979 RMK A01 T01180115  RH  098%=      5-min Rain = 0
KCH1 230339Z 12011KT 12/12 A2979 RMK A01 T01180115  RH  098%=      5-min Rain = 0
KCH1 230340Z 13012KT 12/12 A2979 RMK A01 T01180115  RH  098%=      5-min Rain = 0
KCH1 230341Z 11010KT 12/12 A2979 RMK A01 T01190116  RH  098%=      5-min Rain = 0
KCH1 230342Z 13010KT 12/12 A2979 RMK A01 T01190116  RH  098%=      5-min Rain = 0
KCH1 230343Z 13012KT 12/12 A2979 RMK A01 T01190116  RH  098%=      5-min Rain = 0
KCH1 230344Z 12011KT 12/12 A2979 RMK A01 T01190117  RH  098%=      5-min Rain = 0
KCH1 230345Z 13012KT 12/12 A2979 RMK A01 T01190117  RH  098%=      5-min Rain = 0
KCH1 230346Z 13010G15KT 12/12 A2979 RMK A01 T01200117  RH  098%=      5-min Rain = 0
KCH1 230347Z 13011KT 12/12 A2979 RMK A01 T01200117  RH  098%=      5-min Rain = 0
KCH1 230348Z 12010KT 12/12 A2979 RMK A01 T01210118  RH  098%=      5-min Rain = 0
KCH1 230349Z 12010KT 12/12 A2979 RMK A01 T01210118  RH  098%=      5-min Rain = 0
KCH1 230350Z 13011KT 12/12 A2979 RMK A01 T01210118  RH  098%=      5-min Rain = 0
KCH1 230351Z 12011KT 12/12 A2979 RMK A01 T01210118  RH  098%=      5-min Rain = 0
KCH1 230352Z 13010KT 12/12 A2979 RMK A01 T01210118  RH  098%=      5-min Rain = 0
KCH1 230353Z 13009KT 12/12 A2979 RMK A01 T01210118  RH  098%=      5-min Rain = 0
KCH1 230354Z 13010KT 12/12 A2979 RMK A01 T01220119  RH  098%=      5-min Rain = 0
KCH1 230355Z 12010KT 12/12 A2979 RMK A01 T01220119  RH  098%=      5-min Rain = 0
KCH1 230356Z 12010G15KT 12/12 A2979 RMK A01 T01230119  RH  098%=      5-min Rain = 0
KCH1 230357Z 13011KT 12/12 A2979 RMK A01 T01230119  RH  098%=      5-min Rain = 0
KCH1 230358Z 12010KT 12/12 A2979 RMK A01 T01230120  RH  098%=      5-min Rain = 0
KCH1 230359Z 13011G16KT 12/12 A2978 RMK A01 T01230120  RH  098%=      5-min Rain = 0
KCH1 230400Z 12009KT 12/12 A2978 RMK A01 T01230119  RH  097%=      5-min Rain = 0
KCH1 230401Z 13012G18KT 12/12 A2978 RMK A01 T01230119  RH  097%=      5-min Rain = 0
KCH1 230402Z 13011KT 12/12 A2978 RMK A01 T01240120  RH  097%=      5-min Rain = 0
KCH1 230403Z 13011KT 12/12 A2978 RMK A01 T01240120  RH  097%=      5-min Rain = 0
KCH1 230404Z 13012KT 12/12 A2978 RMK A01 T01240120  RH  097%=      5-min Rain = 0
KCH1 230405Z 12012KT 13/12 A2978 RMK A01 T01250121  RH  097%=      5-min Rain = 0
KCH1 230406Z 13013KT 13/12 A2978 RMK A01 T01250120  RH  097%=      5-min Rain = 0
KCH1 230407Z 13013KT 13/12 A2978 RMK A01 T01250121  RH  097%=      5-min Rain = 0
KCH1 230408Z 12015KT 13/12 A2978 RMK A01 T01260121  RH  097%=      5-min Rain = 0
KCH1 230409Z 13012KT 13/12 A2978 RMK A01 T01260121  RH  097%=      5-min Rain = 0
KCH1 230410Z 12012KT 13/12 A2978 RMK A01 T01260121  RH  097%=      5-min Rain = 0
KCH1 230411Z 12010KT 13/12 A2978 RMK A01 T01260121  RH  097%=      5-min Rain = 0
KCH1 230412Z 12011KT 13/12 A2978 RMK A01 T01260121  RH  097%=      5-min Rain = 0
KCH1 230413Z 13015KT 13/12 A2977 RMK A01 T01260121  RH  097%=      5-min Rain = 0
KCH1 230414Z 13014G19KT 13/12 A2977 RMK A01 T01260121  RH  097%=      5-min Rain = 0
KCH1 230415Z 13015KT 13/12 A2977 RMK A01 T01270121  RH  097%=      5-min Rain = 0
KCH1 230416Z 13011KT 13/12 A2977 RMK A01 T01260121  RH  096%=      5-min Rain = 0
KCH1 230417Z 13015G21KT 13/12 A2977 RMK A01 T01270121  RH  096%=      5-min Rain = 0
KCH1 230418Z 13016KT 13/12 A2977 RMK A01 T01260121  RH  096%=      5-min Rain = 0
KCH1 230419Z 13013KT 13/12 A2977 RMK A01 T01270121  RH  096%=      5-min Rain = 0
KCH1 230420Z 13015KT 13/12 A2977 RMK A01 T01270121  RH  096%=      5-min Rain = 0
KCH1 230421Z 13014KT 13/12 A2977 RMK A01 T01270121  RH  096%=      5-min Rain = 0
KCH1 230422Z 12015KT 13/12 A2977 RMK A01 T01270121  RH  096%=      5-min Rain = 0
KCH1 230423Z 13012KT 13/12 A2977 RMK A01 T01270121  RH  096%=      5-min Rain = 0
KCH1 230424Z 12012KT 13/12 A2977 RMK A01 T01270121  RH  096%=      5-min Rain = 0
KCH1 230425Z 12013KT 13/12 A2977 RMK A01 T01260120  RH  096%=      5-min Rain = 0
KCH1 230426Z 13017KT 13/12 A2977 RMK A01 T01260120  RH  096%=      5-min Rain = 0
KCH1 230427Z 13012G17KT 13/12 A2977 RMK A01 T01260121  RH  096%=      5-min Rain = 0
KCH1 230428Z 13014KT 13/12 A2977 RMK A01 T01270121  RH  096%=      5-min Rain = 0
KCH1 230429Z 13014KT 13/12 A2977 RMK A01 T01270121  RH  096%=      5-min Rain = 0
KCH1 230430Z 13014KT 13/12 A2977 RMK A01 T01260121  RH  096%=      5-min Rain = 0
KCH1 230431Z 13012KT 13/12 A2977 RMK A01 T01260121  RH  096%=      5-min Rain = 0
KCH1 230432Z 13014KT 13/12 A2977 RMK A01 T01260121  RH  096%=      5-min Rain = 0
KCH1 230433Z 13015KT 13/12 A2977 RMK A01 T01270121  RH  096%=      5-min Rain = 0
KCH1 230434Z 13012KT 13/12 A2977 RMK A01 T01270121  RH  096%=      5-min Rain = 0
KCH1 230435Z 14008KT 13/12 A2977 RMK A01 T01270121  RH  096%=      5-min Rain = 0
KCH1 230436Z 13012KT 13/12 A2977 RMK A01 T01270121  RH  096%=      5-min Rain = 0
KCH1 230437Z 13009KT 13/12 A2977 RMK A01 T01260121  RH  096%=      5-min Rain = 0
KCH1 230438Z 12011KT 13/12 A2977 RMK A01 T01270121  RH  096%=      5-min Rain = 0
KCH1 230439Z 14009KT 13/12 A2977 RMK A01 T01260121  RH  096%=      5-min Rain = 0
KCH1 230440Z 13009KT 13/12 A2977 RMK A01 T01260120  RH  096%=      5-min Rain = 0
KCH1 230441Z 14012G17KT 13/12 A2977 RMK A01 T01260121  RH  097%=      5-min Rain = 0
KCH1 230442Z 14012KT 13/12 A2977 RMK A01 T01260121  RH  097%=      5-min Rain = 0
KCH1 230443Z 13010KT 13/12 A2977 RMK A01 T01260121  RH  097%=      5-min Rain = 0
KCH1 230444Z 13009KT 13/12 A2977 RMK A01 T01260121  RH  097%=      5-min Rain = 0
KCH1 230445Z 13010KT 13/12 A2977 RMK A01 T01260121  RH  097%=      5-min Rain = 0
KCH1 230446Z 13014KT 13/12 A2977 RMK A01 T01250121  RH  097%=      5-min Rain = 0
KCH1 230447Z 13012KT 13/12 A2977 RMK A01 T01260121  RH  097%=      5-min Rain = 0
KCH1 230448Z 13012KT 13/12 A2977 RMK A01 T01260121  RH  097%=      5-min Rain = 0
KCH1 230449Z 13012KT 13/12 A2977 RMK A01 T01250121  RH  097%=      5-min Rain = 0
KCH1 230450Z 13011KT 13/12 A2977 RMK A01 T01250121  RH  097%=      5-min Rain = 0
KCH1 230451Z 14015KT 13/12 A2977 RMK A01 T01250121  RH  097%=      5-min Rain = 0
KCH1 230452Z 14013KT 13/12 A2977 RMK A01 T01250121  RH  097%=      5-min Rain = 0
KCH1 230453Z 13013G18KT 13/12 A2977 RMK A01 T01250121  RH  098%=      5-min Rain = 0
KCH1 230454Z 13015KT 13/12 A2977 RMK A01 T01250121  RH  098%=      5-min Rain = 0
KCH1 230455Z 14013KT 13/12 A2977 RMK A01 T01250121  RH  098%=      5-min Rain = 0
KCH1 230456Z 14014G19KT 12/12 A2977 RMK A01 T01240121  RH  098%=      5-min Rain = 0
KCH1 230457Z 14014KT 12/12 A2977 RMK A01 T01240121  RH  098%=      5-min Rain = 0
KCH1 230458Z 14014KT 12/12 A2977 RMK A01 T01240121  RH  098%=      5-min Rain = 0
KCH1 230459Z 14016G21KT 12/12 A2977 RMK A01 T01240121  RH  098%=      5-min Rain = 0
KCH1 230500Z 14015KT 12/12 A2976 RMK A01 T01240121  RH  098%=      5-min Rain = 0
KCH1 230501Z 14013KT 12/12 A2976 RMK A01 T01230121  RH  099%=      5-min Rain = 0
KCH1 230502Z 14014KT 12/12 A2976 RMK A01 T01230121  RH  099%=      5-min Rain = 0
KCH1 230503Z 15012KT 12/12 A2976 RMK A01 T01230121  RH  099%=      5-min Rain = 0
KCH1 230504Z 14014G20KT 12/12 A2976 RMK A01 T01230121  RH  099%=      5-min Rain = 0
KCH1 230505Z 14016KT 12/12 A2976 RMK A01 T01230121  RH  099%=      5-min Rain = 0
KCH1 230506Z 14016G21KT 12/12 A2976 RMK A01 T01230121  RH  099%=      5-min Rain = 0
KCH1 230507Z 13012G17KT 12/12 A2976 RMK A01 T01220121  RH  099%=      5-min Rain = 0
KCH1 230508Z 13014KT 12/12 A2976 RMK A01 T01220121  RH  099%=      5-min Rain = 0
KCH1 230509Z 14016KT 12/12 A2976 RMK A01 T01220121  RH  099%=      5-min Rain = 0
KCH1 230510Z 13013G18KT 12/12 A2975 RMK A01 T01230121  RH  099%=      5-min Rain = 0
KCH1 230511Z 14014G20KT 12/12 A2975 RMK A01 T01220121  RH  099%=      5-min Rain = 0
KCH1 230512Z 14015KT 12/12 A2975 RMK A01 T01220121  RH  099%=      5-min Rain = 0
KCH1 230513Z 14012KT 12/12 A2975 RMK A01 T01220121  RH  099%=      5-min Rain = 0
KCH1 230514Z 14015KT 12/12 A2975 RMK A01 T01220121  RH  099%=      5-min Rain = 0
KCH1 230515Z 13015G20KT 12/12 A2975 RMK A01 T01220121  RH  099%=      5-min Rain = 0
KCH1 230516Z 13014G20KT 12/12 A2975 RMK A01 T01220121  RH  099%=      5-min Rain = 0
KCH1 230517Z 14013KT 12/12 A2975 RMK A01 T01230122  RH  099%=      5-min Rain = 0
KCH1 230518Z 14010KT 12/12 A2976 RMK A01 T01220121  RH  099%=      5-min Rain = 0
KCH1 230519Z 14012G19KT 12/12 A2976 RMK A01 T01230122  RH  099%=      5-min Rain = 0
KCH1 230520Z 14014KT 12/12 A2976 RMK A01 T01230122  RH  099%=      5-min Rain = 0
KCH1 230521Z 13009KT 12/12 A2976 RMK A01 T01220121  RH  099%=      5-min Rain = 0
KCH1 230522Z 14013KT 12/12 A2976 RMK A01 T01230121  RH  099%=      5-min Rain = 0
KCH1 230523Z 14012KT 12/12 A2976 RMK A01 T01220121  RH  099%=      5-min Rain = 0
KCH1 230524Z 14012G18KT 12/12 A2975 RMK A01 T01220121  RH  099%=      5-min Rain = 0
KCH1 230525Z 14016KT 12/12 A2975 RMK A01 T01220121  RH  099%=      5-min Rain = 0
KCH1 230526Z 14017KT 12/12 A2975 RMK A01 T01220121  RH  099%=      5-min Rain = 0
KCH1 230527Z 15015KT 12/12 A2976 RMK A01 T01220121  RH  099%=      5-min Rain = 0
KCH1 230528Z 15015G20KT 12/12 A2976 RMK A01 T01220121  RH  099%=      5-min Rain = 0
KCH1 230529Z 15015KT 12/12 A2976 RMK A01 T01230122  RH  099%=      5-min Rain = 0
KCH1 230530Z 14012KT 12/12 A2976 RMK A01 T01220121  RH  099%=      5-min Rain = 0
KCH1 230531Z 14015KT 12/12 A2976 RMK A01 T01220121  RH  099%=      5-min Rain = 0
KCH1 230532Z 14014KT 12/12 A2976 RMK A01 T01220121  RH  100%=      5-min Rain = 0
KCH1 230533Z 14010KT 12/12 A2976 RMK A01 T01210121  RH  100%=      5-min Rain = 0
KCH1 230534Z 14011KT 12/12 A2976 RMK A01 T01210121  RH  100%=      5-min Rain = 0
KCH1 230535Z 14013KT 12/12 A2976 RMK A01 T01210121  RH  100%=      5-min Rain = 0
KCH1 230536Z 14013KT 12/12 A2976 RMK A01 T01210121  RH  100%=      5-min Rain = 0
KCH1 230537Z 14013KT 12/12 A2976 RMK A01 T01210121  RH  100%=      5-min Rain = 0
KCH1 230538Z 14008KT 12/12 A2975 RMK A01 T01210121  RH  100%=      5-min Rain = 0
KCH1 230539Z 14009KT 12/12 A2975 RMK A01 T01200120  RH  100%=      5-min Rain = 0
KCH1 230540Z 14010KT 12/12 A2976 RMK A01 T01200120  RH  100%=      5-min Rain = 0
KCH1 230541Z 15011KT 12/12 A2975 RMK A01 T01200120  RH  100%=      5-min Rain = 0
KCH1 230542Z 15011KT 12/12 A2975 RMK A01 T01200120  RH  100%=      5-min Rain = 0
KCH1 230543Z 15012KT 12/12 A2975 RMK A01 T01200120  RH  100%=      5-min Rain = 0
KCH1 230544Z 14015KT 12/12 A2975 RMK A01 T01200120  RH  100%=      5-min Rain = 0
KCH1 230545Z 14012KT 12/12 A2975 RMK A01 T01200120  RH  100%=      5-min Rain = 0
KCH1 230546Z 15011G17KT 12/12 A2975 RMK A01 T01200120  RH  100%=      5-min Rain = 0
KCH1 230547Z 15014KT 12/12 A2975 RMK A01 T01200120  RH  100%=      5-min Rain = 0
KCH1 230548Z 15016KT 12/12 A2975 RMK A01 T01200120  RH  100%=      5-min Rain = 0
KCH1 230549Z 15016KT 12/12 A2975 RMK A01 T01200120  RH  100%=      5-min Rain = 0
KCH1 230550Z 15015KT 12/12 A2975 RMK A01 T01210121  RH  100%=      5-min Rain = 0
KCH1 230551Z 16015KT 12/12 A2975 RMK A01 T01210121  RH  100%=      5-min Rain = 0
KCH1 230552Z 16015KT 12/12 A2975 RMK A01 T01210121  RH  100%=      5-min Rain = 0
KCH1 230553Z 15014G21KT 12/12 A2975 RMK A01 T01220121  RH  099%=      5-min Rain = 0
KCH1 230554Z 15017KT 12/12 A2975 RMK A01 T01220121  RH  099%=      5-min Rain = 0
KCH1 230555Z 15013KT 12/12 A2975 RMK A01 T01230121  RH  099%=      5-min Rain = 0
KCH1 230556Z 16012KT 12/12 A2975 RMK A01 T01230121  RH  099%=      5-min Rain = 0
KCH1 230557Z 16013KT 12/12 A2975 RMK A01 T01230121  RH  099%=      5-min Rain = 0
KCH1 230558Z 16013KT 12/12 A2975 RMK A01 T01230121  RH  099%=      5-min Rain = 0
KCH1 230559Z 15014KT 12/12 A2975 RMK A01 T01230120  RH  098%=      5-min Rain = 0

Page generated in 0.1425 seconds.